| time (UTC) | temp C | wind direction | speed KPH | gust KPH | rain 1hr cm | rain 24hr cm | rain mn cm | humidity % | barometer mb |
| 20260905063310 | 26 | 169 | 0.0 | 0.0 | 0.00 | 0.15 | 0.00 | 92 | 1011.2 |
| 20260905063210 | 26 | 169 | 0.0 | 0.0 | 0.00 | 0.15 | 0.00 | 92 | 1011.3 |
| 20260905063110 | 26 | 169 | 0.0 | 0.0 | 0.00 | 0.15 | 0.00 | 92 | 1011.3 |
| 20260905063011 | 26 | 169 | 0.0 | 0.0 | 0.00 | 0.15 | 0.00 | 92 | 1011.3 |
| 20260905062910 | 26 | 169 | 0.0 | 0.0 | 0.00 | 0.15 | 0.00 | 92 | 1011.3 |
| 20260905062809 | 26 | 169 | 0.0 | 0.0 | 0.00 | 0.15 | 0.00 | 92 | 1011.3 |
| 20260905062708 | 26 | 169 | 0.0 | 0.0 | 0.00 | 0.15 | 0.00 | 92 | 1011.4 |
| 20260905062610 | 26 | 169 | 0.0 | 0.0 | 0.00 | 0.15 | 0.00 | 92 | 1011.4 |
| 20260905062510 | 26 | 169 | 0.0 | 0.0 | 0.00 | 0.15 | 0.00 | 92 | 1011.3 |
| 20260905062408 | 26 | 169 | 0.0 | 0.0 | 0.00 | 0.15 | 0.00 | 92 | 1011.3 |
| 20260905062306 | 26 | 169 | 0.0 | 0.0 | 0.00 | 0.15 | 0.00 | 92 | 1011.4 |
| 20260905062205 | 26 | 169 | 0.0 | 0.0 | 0.00 | 0.15 | 0.00 | 92 | 1011.3 |
| 20260905062104 | 26 | 157 | 0.0 | 0.0 | 0.00 | 0.15 | 0.00 | 92 | 1011.4 |
| 20260905062003 | 26 | 164 | 0.0 | 0.0 | 0.00 | 0.15 | 0.00 | 92 | 1011.4 |
| 20260905061902 | 27 | 165 | 0.0 | 0.0 | 0.00 | 0.15 | 0.00 | 92 | 1011.4 |
| 20260905061803 | 27 | 165 | 0.0 | 0.0 | 0.00 | 0.15 | 0.00 | 92 | 1011.3 |
| 20260905061702 | 27 | 166 | 0.0 | 0.0 | 0.00 | 0.15 | 0.00 | 92 | 1011.3 |
| 20260905061604 | 27 | 166 | 0.0 | 0.0 | 0.00 | 0.15 | 0.00 | 91 | 1011.3 |
| 20260905061504 | 27 | 166 | 0.0 | 0.0 | 0.00 | 0.15 | 0.00 | 91 | 1011.3 |
| 20260905061402 | 27 | 168 | 0.0 | 0.0 | 0.00 | 0.15 | 0.00 | 91 | 1011.3 |
| 20260905061303 | 27 | 168 | 0.0 | 0.0 | 0.00 | 0.15 | 0.00 | 91 | 1011.3 |
| 20260905061202 | 27 | 168 | 0.0 | 0.0 | 0.00 | 0.15 | 0.00 | 91 | 1011.4 |
| 20260905061102 | 27 | 168 | 0.0 | 0.0 | 0.00 | 0.15 | 0.00 | 91 | 1011.3 |
| 20260905061004 | 27 | 168 | 0.0 | 0.0 | 0.00 | 0.15 | 0.00 | 91 | 1011.5 |
| 20260905060901 | 27 | 168 | 0.0 | 0.0 | 0.00 | 0.15 | 0.00 | 91 | 1011.4 |
| 20260905060803 | 27 | 168 | 0.0 | 0.0 | 0.00 | 0.15 | 0.00 | 91 | 1011.4 |
| 20260905060703 | 27 | 168 | 0.0 | 0.0 | 0.00 | 0.15 | 0.00 | 91 | 1011.4 |
| 20260905060602 | 27 | 168 | 0.0 | 0.0 | 0.00 | 0.15 | 0.00 | 91 | 1011.4 |
| 20260905060502 | 27 | 168 | 0.0 | 0.0 | 0.00 | 0.15 | 0.00 | 91 | 1011.4 |
| 20260905060403 | 27 | 168 | 0.0 | 0.0 | 0.00 | 0.15 | 0.00 | 91 | 1011.5 |
| 20260905060303 | 27 | 168 | 0.0 | 0.0 | 0.00 | 0.15 | 0.00 | 91 | 1011.3 |
| 20260905060202 | 27 | 168 | 0.0 | 0.0 | 0.00 | 0.15 | 0.00 | 91 | 1011.3 |
| 20260905060002 | 27 | 168 | 0.0 | 0.0 | 0.00 | 0.15 | 0.00 | 91 | 1011.4 |
| 20260905055903 | 27 | 169 | 0.0 | 0.0 | 0.00 | 0.15 | 0.00 | 90 | 1011.2 |
| 20260905055803 | 27 | 169 | 0.0 | 0.0 | 0.00 | 0.15 | 0.00 | 90 | 1011.3 |
| 20260905055702 | 27 | 169 | 0.0 | 0.0 | 0.00 | 0.15 | 0.00 | 90 | 1011.3 |
| 20260905055602 | 27 | 169 | 0.0 | 0.0 | 0.00 | 0.15 | 0.00 | 90 | 1011.3 |
| 20260905055502 | 27 | 169 | 0.0 | 3.2 | 0.00 | 0.15 | 0.00 | 90 | 1011.3 |
| 20260905055402 | 27 | 169 | 0.0 | 3.2 | 0.00 | 0.15 | 0.00 | 90 | 1011.3 |
| 20260905055306 | 27 | 169 | 0.0 | 3.2 | 0.00 | 0.15 | 0.00 | 90 | 1011.3 |
| 20260905055202 | 27 | 169 | 0.0 | 3.2 | 0.00 | 0.15 | 0.00 | 90 | 1011.3 |
| 20260905055103 | 27 | 169 | 0.0 | 3.2 | 0.00 | 0.15 | 0.00 | 90 | 1011.3 |
| 20260905055004 | 27 | 169 | 0.0 | 3.2 | 0.00 | 0.15 | 0.00 | 90 | 1011.3 |
| 20260905054903 | 27 | 169 | 0.0 | 3.2 | 0.00 | 0.15 | 0.00 | 90 | 1011.3 |
| 20260905054802 | 27 | 169 | 0.0 | 3.2 | 0.00 | 0.15 | 0.00 | 90 | 1011.3 |
| 20260905054704 | 27 | 169 | 0.0 | 3.2 | 0.00 | 0.15 | 0.00 | 90 | 1011.3 |
| 20260905054602 | 27 | 169 | 0.0 | 3.2 | 0.00 | 0.15 | 0.00 | 90 | 1011.3 |
| 20260905054502 | 27 | 169 | 0.0 | 3.2 | 0.00 | 0.15 | 0.00 | 90 | 1011.3 |
| 20260905054403 | 27 | 169 | 0.0 | 3.2 | 0.00 | 0.15 | 0.00 | 90 | 1011.3 |
| 20260905054301 | 27 | 169 | 0.0 | 3.2 | 0.00 | 0.15 | 0.00 | 90 | 1011.3 |
| 20260905054201 | 27 | 169 | 0.0 | 3.2 | 0.00 | 0.15 | 0.00 | 90 | 1011.3 |
| 20260905054104 | 27 | 169 | 0.0 | 4.8 | 0.00 | 0.15 | 0.00 | 90 | 1011.3 |
| 20260905054005 | 27 | 169 | 0.0 | 4.8 | 0.00 | 0.15 | 0.00 | 89 | 1011.3 |
| 20260905053903 | 27 | 169 | 0.0 | 4.8 | 0.00 | 0.15 | 0.00 | 90 | 1011.4 |
| 20260905053803 | 27 | 169 | 0.0 | 4.8 | 0.00 | 0.15 | 0.00 | 89 | 1011.3 |
| 20260905053703 | 27 | 169 | 0.0 | 4.8 | 0.00 | 0.15 | 0.00 | 89 | 1011.3 |
| 20260905053603 | 27 | 169 | 0.0 | 4.8 | 0.00 | 0.15 | 0.00 | 89 | 1011.3 |
| 20260905053504 | 27 | 169 | 0.0 | 4.8 | 0.00 | 0.15 | 0.00 | 89 | 1011.3 |
| 20260905053403 | 27 | 169 | 0.0 | 4.8 | 0.00 | 0.15 | 0.00 | 89 | 1011.3 |
| 20260905053302 | 27 | 169 | 1.6 | 6.4 | 0.00 | 0.15 | 0.00 | 89 | 1011.4 |
| 20260905053202 | 27 | 169 | 3.2 | 6.4 | 0.00 | 0.15 | 0.00 | 89 | 1011.3 |
| 20260905053103 | 27 | 172 | 1.6 | 6.4 | 0.00 | 0.15 | 0.00 | 89 | 1011.4 |
| 20260905053004 | 27 | 172 | 1.6 | 6.4 | 0.00 | 0.15 | 0.00 | 89 | 1011.4 |
| 20260905052902 | 27 | 175 | 3.2 | 6.4 | 0.00 | 0.15 | 0.00 | 89 | 1011.4 |
| 20260905052802 | 27 | 180 | 1.6 | 6.4 | 0.00 | 0.15 | 0.00 | 89 | 1011.4 |
| 20260905052704 | 27 | 182 | 3.2 | 6.4 | 0.00 | 0.15 | 0.00 | 89 | 1011.3 |
| 20260905052602 | 27 | 171 | 3.2 | 6.4 | 0.00 | 0.15 | 0.00 | 89 | 1011.4 |
| 20260905052502 | 27 | 195 | 3.2 | 6.4 | 0.00 | 0.15 | 0.00 | 89 | 1011.3 |
| 20260905052402 | 27 | 190 | 3.2 | 6.4 | 0.00 | 0.15 | 0.00 | 89 | 1011.4 |
| 20260905052306 | 27 | 178 | 4.8 | 6.4 | 0.00 | 0.15 | 0.00 | 89 | 1011.4 |
| 20260905052202 | 27 | 189 | 3.2 | 6.4 | 0.00 | 0.15 | 0.00 | 89 | 1011.4 |
| 20260905052102 | 27 | 179 | 3.2 | 6.4 | 0.00 | 0.15 | 0.00 | 89 | 1011.4 |
| 20260905052004 | 27 | 189 | 3.2 | 6.4 | 0.00 | 0.15 | 0.00 | 89 | 1011.5 |
| 20260905051902 | 27 | 183 | 3.2 | 6.4 | 0.00 | 0.15 | 0.00 | 89 | 1011.4 |
| 20260905051802 | 27 | 179 | 0.0 | 4.8 | 0.00 | 0.15 | 0.00 | 89 | 1011.4 |
| 20260905051702 | 27 | 188 | 0.0 | 8.0 | 0.00 | 0.15 | 0.00 | 89 | 1011.4 |
| 20260905051602 | 27 | 188 | 1.6 | 8.0 | 0.00 | 0.15 | 0.00 | 89 | 1011.4 |
| 20260905051502 | 27 | 195 | 3.2 | 8.0 | 0.00 | 0.15 | 0.00 | 89 | 1011.5 |
| 20260905051402 | 27 | 195 | 3.2 | 8.0 | 0.00 | 0.15 | 0.00 | 89 | 1011.5 |
| 20260905051303 | 27 | 195 | 1.6 | 8.0 | 0.00 | 0.15 | 0.00 | 89 | 1011.4 |
| 20260905051202 | 27 | 195 | 1.6 | 8.0 | 0.00 | 0.15 | 0.00 | 89 | 1011.4 |
| 20260905051102 | 27 | 195 | 1.6 | 8.0 | 0.00 | 0.15 | 0.00 | 89 | 1011.4 |
| 20260905051003 | 27 | 193 | 1.6 | 8.0 | 0.00 | 0.15 | 0.00 | 89 | 1011.3 |
| 20260905050903 | 27 | 195 | 3.2 | 8.0 | 0.00 | 0.15 | 0.00 | 89 | 1011.4 |
| 20260905050802 | 27 | 195 | 4.8 | 8.0 | 0.00 | 0.15 | 0.00 | 89 | 1011.4 |
| 20260905050702 | 27 | 193 | 4.8 | 8.0 | 0.00 | 0.15 | 0.00 | 89 | 1011.4 |
| 20260905050603 | 27 | 195 | 4.8 | 8.0 | 0.00 | 0.15 | 0.00 | 89 | 1011.3 |
| 20260905050502 | 27 | 204 | 4.8 | 6.4 | 0.00 | 0.15 | 0.00 | 89 | 1011.4 |
| 20260905050402 | 27 | 206 | 3.2 | 8.0 | 0.00 | 0.15 | 0.00 | 89 | 1011.3 |
| 20260905050303 | 27 | 199 | 1.6 | 8.0 | 0.00 | 0.15 | 0.00 | 88 | 1011.4 |
| 20260905050202 | 27 | 199 | 1.6 | 8.0 | 0.00 | 0.15 | 0.00 | 88 | 1011.3 |
| 20260905050003 | 27 | 185 | 1.6 | 8.0 | 0.00 | 0.15 | 0.00 | 88 | 1011.3 |
| 20260905045903 | 27 | 185 | 1.6 | 8.0 | 0.00 | 0.15 | 0.15 | 88 | 1011.3 |
| 20260905045802 | 27 | 182 | 1.6 | 8.0 | 0.00 | 0.15 | 0.15 | 88 | 1011.3 |
| 20260905045702 | 27 | 202 | 1.6 | 8.0 | 0.00 | 0.15 | 0.15 | 88 | 1011.3 |
| 20260905045604 | 27 | 202 | 3.2 | 8.0 | 0.00 | 0.15 | 0.15 | 88 | 1011.2 |
| 20260905045502 | 27 | 203 | 4.8 | 8.0 | 0.00 | 0.15 | 0.15 | 88 | 1011.2 |
| 20260905045403 | 27 | 180 | 4.8 | 8.0 | 0.00 | 0.15 | 0.15 | 88 | 1011.3 |
| 20260905045305 | 27 | 188 | 4.8 | 8.0 | 0.00 | 0.15 | 0.15 | 88 | 1011.3 |
| 20260905045202 | 27 | 193 | 4.8 | 8.0 | 0.00 | 0.15 | 0.15 | 88 | 1011.3 |
| 20260905045102 | 27 | 149 | 4.8 | 8.0 | 0.00 | 0.15 | 0.15 | 88 | 1011.2 |
| 20260905044959 | 27 | 200 | 3.2 | 8.0 | 0.00 | 0.15 | 0.15 | 88 | 1011.2 |
| 20260905044858 | 27 | 192 | 4.8 | 8.0 | 0.00 | 0.15 | 0.15 | 88 | 1011.2 |
| 20260905044756 | 27 | 182 | 3.2 | 8.0 | 0.00 | 0.15 | 0.15 | 88 | 1011.3 |
| 20260905044655 | 27 | 169 | 3.2 | 8.0 | 0.00 | 0.15 | 0.15 | 88 | 1011.1 |
| 20260905044554 | 27 | 188 | 3.2 | 8.0 | 0.00 | 0.15 | 0.15 | 88 | 1011.2 |
| 20260905044452 | 27 | 123 | 3.2 | 8.0 | 0.00 | 0.15 | 0.15 | 88 | 1011.3 |
| 20260905044350 | 27 | 180 | 3.2 | 9.7 | 0.00 | 0.15 | 0.15 | 88 | 1011.2 |
| 20260905044248 | 28 | 193 | 0.0 | 9.7 | 0.00 | 0.15 | 0.15 | 88 | 1011.2 |
| 20260905044147 | 28 | 216 | 3.2 | 9.7 | 0.00 | 0.15 | 0.15 | 88 | 1011.2 |
| 20260905044046 | 28 | 168 | 3.2 | 9.7 | 0.00 | 0.15 | 0.15 | 88 | 1011.3 |
| 20260905043943 | 28 | 179 | 3.2 | 9.7 | 0.00 | 0.15 | 0.15 | 88 | 1011.2 |
| 20260905043842 | 28 | 165 | 3.2 | 9.7 | 0.00 | 0.15 | 0.15 | 88 | 1011.3 |
| 20260905043737 | 27 | 168 | 3.2 | 9.7 | 0.00 | 0.15 | 0.15 | 88 | 1011.3 |
| 20260905043637 | 27 | 157 | 4.8 | 9.7 | 0.00 | 0.15 | 0.15 | 88 | 1011.2 |
| 20260905043535 | 27 | 116 | 3.2 | 9.7 | 0.00 | 0.15 | 0.15 | 88 | 1011.3 |
| 20260905043433 | 27 | 142 | 3.2 | 9.7 | 0.00 | 0.15 | 0.15 | 88 | 1011.3 |
| 20260905043330 | 27 | 141 | 3.2 | 9.7 | 0.00 | 0.15 | 0.15 | 88 | 1011.3 |
| 20260905043232 | 28 | 135 | 6.4 | 9.7 | 0.00 | 0.15 | 0.15 | 88 | 1011.3 |
| 20260905043132 | 28 | 176 | 4.8 | 9.7 | 0.00 | 0.15 | 0.15 | 88 | 1011.3 |
| 20260905043031 | 28 | 149 | 3.2 | 9.7 | 0.00 | 0.15 | 0.15 | 88 | 1011.4 |
| 20260905042931 | 28 | 161 | 3.2 | 9.7 | 0.00 | 0.15 | 0.15 | 88 | 1011.3 |
| 20260905042832 | 28 | 157 | 3.2 | 9.7 | 0.00 | 0.15 | 0.15 | 87 | 1011.4 |
| 20260905042731 | 28 | 165 | 3.2 | 9.7 | 0.00 | 0.15 | 0.15 | 87 | 1011.3 |
| 20260905042631 | 28 | 121 | 3.2 | 9.7 | 0.00 | 0.15 | 0.15 | 87 | 1011.4 |
| 20260905042531 | 28 | 180 | 4.8 | 9.7 | 0.00 | 0.15 | 0.15 | 87 | 1011.3 |
| 20260905042431 | 28 | 152 | 4.8 | 9.7 | 0.00 | 0.15 | 0.15 | 88 | 1011.2 |
| 20260905042331 | 28 | 193 | 3.2 | 8.0 | 0.00 | 0.15 | 0.15 | 87 | 1011.4 |
| 20260905042231 | 28 | 171 | 3.2 | 8.0 | 0.00 | 0.15 | 0.15 | 87 | 1011.3 |
| 20260905042132 | 28 | 178 | 3.2 | 8.0 | 0.00 | 0.15 | 0.15 | 87 | 1011.4 |
| 20260905042031 | 28 | 172 | 3.2 | 8.0 | 0.00 | 0.15 | 0.15 | 87 | 1011.4 |
| 20260905041931 | 28 | 196 | 3.2 | 8.0 | 0.00 | 0.15 | 0.15 | 87 | 1011.4 |
| 20260905041831 | 28 | 171 | 3.2 | 8.0 | 0.00 | 0.15 | 0.15 | 87 | 1011.4 |
| 20260905041732 | 28 | 149 | 3.2 | 8.0 | 0.00 | 0.15 | 0.15 | 87 | 1011.4 |
| 20260905041631 | 28 | 193 | 3.2 | 6.4 | 0.00 | 0.15 | 0.15 | 87 | 1011.5 |
| 20260905041531 | 28 | 147 | 3.2 | 6.4 | 0.00 | 0.15 | 0.15 | 87 | 1011.5 |
| 20260905041431 | 28 | 128 | 3.2 | 6.4 | 0.00 | 0.15 | 0.15 | 87 | 1011.5 |
| 20260905041331 | 27 | 128 | 1.6 | 6.4 | 0.00 | 0.15 | 0.15 | 87 | 1011.5 |
| 20260905041231 | 28 | 138 | 3.2 | 9.7 | 0.00 | 0.15 | 0.15 | 87 | 1011.5 |
| 20260905041132 | 28 | 137 | 3.2 | 9.7 | 0.00 | 0.15 | 0.15 | 87 | 1011.5 |
| 20260905041031 | 28 | 166 | 3.2 | 9.7 | 0.00 | 0.15 | 0.15 | 87 | 1011.5 |
| 20260905040932 | 28 | 157 | 3.2 | 9.7 | 0.00 | 0.15 | 0.15 | 87 | 1011.5 |
| 20260905040831 | 28 | 172 | 3.2 | 9.7 | 0.00 | 0.15 | 0.15 | 87 | 1011.5 |
| 20260905040732 | 28 | 142 | 3.2 | 9.7 | 0.00 | 0.15 | 0.15 | 87 | 1011.5 |
| 20260905040631 | 28 | 175 | 3.2 | 9.7 | 0.00 | 0.15 | 0.15 | 87 | 1011.5 |
| 20260905040531 | 28 | 121 | 3.2 | 9.7 | 0.00 | 0.15 | 0.15 | 87 | 1011.6 |
| 20260905040432 | 28 | 161 | 3.2 | 9.7 | 0.00 | 0.15 | 0.15 | 87 | 1011.5 |
| 20260905040332 | 28 | 149 | 3.2 | 9.7 | 0.00 | 0.15 | 0.15 | 87 | 1011.5 |
| 20260905040232 | 28 | 140 | 1.6 | 8.0 | 0.00 | 0.15 | 0.15 | 87 | 1011.5 |
| 20260905040131 | 28 | 131 | 1.6 | 8.0 | 0.00 | 0.15 | 0.15 | 87 | 1011.6 |
| 20260905040033 | 28 | 159 | 3.2 | 8.0 | 0.00 | 0.15 | 0.15 | 87 | 1011.5 |
| 20260905035933 | 28 | 147 | 1.6 | 8.0 | 0.00 | 0.15 | 0.15 | 87 | 1011.6 |
| 20260905035832 | 28 | 145 | 3.2 | 8.0 | 0.00 | 0.15 | 0.15 | 87 | 1011.6 |
| 20260905035733 | 28 | 188 | 3.2 | 8.0 | 0.00 | 0.15 | 0.15 | 87 | 1011.5 |
| 20260905035631 | 28 | 149 | 1.6 | 8.0 | 0.00 | 0.15 | 0.15 | 87 | 1011.6 |
| 20260905035531 | 28 | 164 | 3.2 | 8.0 | 0.00 | 0.15 | 0.15 | 87 | 1011.6 |
| 20260905035432 | 28 | 206 | 4.8 | 8.0 | 0.00 | 0.15 | 0.15 | 87 | 1011.6 |
| 20260905035332 | 28 | 171 | 3.2 | 6.4 | 0.00 | 0.15 | 0.15 | 87 | 1011.7 |
| 20260905035233 | 28 | 189 | 4.8 | 6.4 | 0.00 | 0.15 | 0.15 | 87 | 1011.6 |
| 20260905035133 | 28 | 157 | 3.2 | 6.4 | 0.00 | 0.15 | 0.15 | 87 | 1011.7 |
| 20260905035030 | 28 | 121 | 3.2 | 6.4 | 0.00 | 0.15 | 0.15 | 87 | 1011.7 |
| 20260905034931 | 28 | 159 | 3.2 | 6.4 | 0.00 | 0.15 | 0.15 | 87 | 1011.7 |
| 20260905034832 | 28 | 134 | 3.2 | 6.4 | 0.00 | 0.15 | 0.15 | 87 | 1011.7 |
| 20260905034732 | 28 | 141 | 3.2 | 6.4 | 0.00 | 0.15 | 0.15 | 87 | 1011.7 |
| 20260905034632 | 28 | 130 | 3.2 | 6.4 | 0.00 | 0.15 | 0.15 | 87 | 1011.7 |
| 20260905034532 | 28 | 145 | 3.2 | 6.4 | 0.00 | 0.15 | 0.15 | 87 | 1011.6 |
| 20260905034431 | 28 | 137 | 3.2 | 6.4 | 0.00 | 0.15 | 0.15 | 87 | 1011.6 |
| 20260905034333 | 28 | 140 | 3.2 | 6.4 | 0.00 | 0.15 | 0.15 | 87 | 1011.5 |
| 20260905034232 | 28 | 169 | 3.2 | 6.4 | 0.00 | 0.15 | 0.15 | 87 | 1011.6 |
| 20260905034131 | 28 | 166 | 1.6 | 6.4 | 0.00 | 0.15 | 0.15 | 87 | 1011.5 |
| 20260905034032 | 28 | 135 | 1.6 | 6.4 | 0.00 | 0.15 | 0.15 | 87 | 1011.5 |
| 20260905033931 | 28 | 134 | 1.6 | 6.4 | 0.00 | 0.15 | 0.15 | 87 | 1011.5 |
| 20260905033829 | 28 | 111 | 0.0 | 4.8 | 0.00 | 0.15 | 0.15 | 87 | 1011.6 |
| 20260905033728 | 28 | 111 | 0.0 | 4.8 | 0.00 | 0.15 | 0.15 | 87 | 1011.6 |
| 20260905033628 | 28 | 111 | 1.6 | 4.8 | 0.00 | 0.15 | 0.15 | 87 | 1011.6 |
| 20260905033523 | 28 | 111 | 3.2 | 4.8 | 0.00 | 0.15 | 0.15 | 87 | 1011.6 |
| 20260905033423 | 28 | 111 | 1.6 | 4.8 | 0.00 | 0.15 | 0.15 | 87 | 1011.6 |
| 20260905033322 | 28 | 111 | 1.6 | 4.8 | 0.00 | 0.15 | 0.15 | 87 | 1011.6 |
| 20260905033221 | 28 | 111 | 0.0 | 4.8 | 0.00 | 0.15 | 0.15 | 87 | 1011.6 |
| 20260905033115 | 28 | 111 | 1.6 | 4.8 | 0.00 | 0.15 | 0.15 | 87 | 1011.6 |
| 20260905033014 | 28 | 111 | 1.6 | 4.8 | 0.00 | 0.15 | 0.15 | 87 | 1011.6 |
| 20260905032913 | 28 | 111 | 1.6 | 4.8 | 0.00 | 0.15 | 0.15 | 87 | 1011.6 |
| 20260905032811 | 28 | 111 | 1.6 | 4.8 | 0.00 | 0.15 | 0.15 | 87 | 1011.6 |
| 20260905032709 | 28 | 111 | 3.2 | 4.8 | 0.00 | 0.15 | 0.15 | 87 | 1011.7 |
| 20260905032609 | 28 | 110 | 1.6 | 4.8 | 0.00 | 0.15 | 0.15 | 87 | 1011.7 |
| 20260905032507 | 28 | 94 | 0.0 | 4.8 | 0.00 | 0.15 | 0.15 | 87 | 1011.7 |
| 20260905032405 | 28 | 94 | 1.6 | 4.8 | 0.00 | 0.15 | 0.15 | 87 | 1011.7 |
| 20260905032306 | 28 | 94 | 1.6 | 4.8 | 0.00 | 0.15 | 0.15 | 87 | 1011.7 |
| 20260905032206 | 28 | 94 | 1.6 | 4.8 | 0.00 | 0.15 | 0.15 | 87 | 1011.8 |
| 20260905032104 | 28 | 92 | 1.6 | 4.8 | 0.00 | 0.15 | 0.15 | 87 | 1011.8 |
| 20260905032004 | 28 | 92 | 3.2 | 4.8 | 0.00 | 0.15 | 0.15 | 87 | 1011.8 |
| 20260905031904 | 28 | 89 | 1.6 | 3.2 | 0.00 | 0.15 | 0.15 | 87 | 1011.7 |
| 20260905031804 | 28 | 89 | 1.6 | 3.2 | 0.00 | 0.15 | 0.15 | 87 | 1011.7 |
| 20260905031704 | 28 | 89 | 1.6 | 3.2 | 0.00 | 0.15 | 0.15 | 87 | 1011.7 |
| 20260905031605 | 28 | 89 | 1.6 | 3.2 | 0.00 | 0.15 | 0.15 | 87 | 1011.8 |
| 20260905031506 | 27 | 89 | 1.6 | 3.2 | 0.00 | 0.15 | 0.15 | 87 | 1011.7 |
| 20260905031404 | 27 | 89 | 0.0 | 1.6 | 0.00 | 0.15 | 0.15 | 87 | 1011.6 |
| 20260905031304 | 27 | 87 | 0.0 | 1.6 | 0.00 | 0.15 | 0.15 | 87 | 1011.6 |
| 20260905031205 | 27 | 87 | 0.0 | 1.6 | 0.00 | 0.15 | 0.15 | 87 | 1011.6 |
| 20260905031104 | 27 | 87 | 0.0 | 1.6 | 0.00 | 0.15 | 0.15 | 87 | 1011.7 |
| 20260905031005 | 27 | 87 | 0.0 | 1.6 | 0.00 | 0.15 | 0.15 | 87 | 1011.7 |
| 20260905030904 | 27 | 87 | 0.0 | 1.6 | 0.00 | 0.15 | 0.15 | 87 | 1011.6 |
| 20260905030804 | 27 | 87 | 0.0 | 1.6 | 0.00 | 0.15 | 0.15 | 87 | 1011.7 |
| 20260905030704 | 27 | 87 | 0.0 | 1.6 | 0.00 | 0.15 | 0.15 | 87 | 1011.7 |
| 20260905030604 | 28 | 87 | 0.0 | 1.6 | 0.00 | 0.15 | 0.15 | 87 | 1011.7 |
| 20260905030504 | 28 | 87 | 0.0 | 3.2 | 0.00 | 0.15 | 0.15 | 87 | 1011.7 |
| 20260905030404 | 28 | 87 | 0.0 | 3.2 | 0.00 | 0.15 | 0.15 | 87 | 1011.7 |
| 20260905030304 | 28 | 87 | 0.0 | 3.2 | 0.00 | 0.15 | 0.15 | 86 | 1011.6 |
| 20260905030204 | 28 | 35 | 0.0 | 3.2 | 0.00 | 0.15 | 0.15 | 86 | 1011.7 |
| 20260905030104 | 28 | 35 | 0.0 | 3.2 | 0.00 | 0.15 | 0.15 | 86 | 1011.6 |
| 20260905030005 | 28 | 35 | 0.0 | 3.2 | 0.00 | 0.15 | 0.15 | 86 | 1011.5 |
| 20260905025904 | 28 | 35 | 0.0 | 3.2 | 0.00 | 0.15 | 0.15 | 86 | 1011.6 |
| 20260905025806 | 28 | 35 | 0.0 | 3.2 | 0.00 | 0.15 | 0.15 | 86 | 1011.6 |
| 20260905025704 | 28 | 35 | 0.0 | 3.2 | 0.03 | 0.15 | 0.15 | 86 | 1011.6 |
| 20260905025604 | 28 | 35 | 1.6 | 3.2 | 0.03 | 0.15 | 0.15 | 85 | 1011.6 |
| 20260905025504 | 28 | 35 | 0.0 | 3.2 | 0.03 | 0.15 | 0.15 | 86 | 1011.6 |
| 20260905025406 | 28 | 35 | 0.0 | 3.2 | 0.03 | 0.15 | 0.15 | 85 | 1011.5 |
| 20260905025306 | 28 | 35 | 0.0 | 3.2 | 0.03 | 0.15 | 0.15 | 86 | 1011.6 |
| 20260905025204 | 28 | 35 | 1.6 | 3.2 | 0.03 | 0.15 | 0.15 | 85 | 1011.6 |
| 20260905025105 | 28 | 35 | 1.6 | 3.2 | 0.03 | 0.15 | 0.15 | 85 | 1011.6 |
| 20260905025006 | 28 | 35 | 1.6 | 3.2 | 0.03 | 0.15 | 0.15 | 85 | 1011.6 |
| 20260905024904 | 28 | 35 | 0.0 | 3.2 | 0.03 | 0.15 | 0.15 | 85 | 1011.6 |
| 20260905024806 | 28 | 37 | 0.0 | 4.8 | 0.03 | 0.15 | 0.15 | 85 | 1011.6 |
| 20260905024704 | 28 | 38 | 0.0 | 4.8 | 0.03 | 0.15 | 0.15 | 84 | 1011.6 |
| 20260905024603 | 28 | 39 | 0.0 | 6.4 | 0.03 | 0.15 | 0.15 | 84 | 1011.5 |
| 20260905024506 | 28 | 41 | 0.0 | 6.4 | 0.03 | 0.15 | 0.15 | 83 | 1011.5 |
| 20260905024404 | 28 | 39 | 0.0 | 6.4 | 0.03 | 0.15 | 0.15 | 83 | 1011.4 |
| 20260905024304 | 28 | 39 | 0.0 | 6.4 | 0.03 | 0.15 | 0.15 | 83 | 1011.4 |
| 20260905024204 | 28 | 41 | 1.6 | 6.4 | 0.03 | 0.15 | 0.15 | 83 | 1011.4 |
| 20260905024104 | 28 | 41 | 1.6 | 6.4 | 0.03 | 0.15 | 0.15 | 83 | 1011.4 |
| 20260905024004 | 28 | 41 | 1.6 | 6.4 | 0.03 | 0.15 | 0.15 | 83 | 1011.4 |
| 20260905023903 | 28 | 41 | 3.2 | 6.4 | 0.03 | 0.15 | 0.15 | 83 | 1011.4 |
| 20260905023804 | 28 | 41 | 3.2 | 6.4 | 0.03 | 0.15 | 0.15 | 83 | 1011.4 |
| 20260905023704 | 28 | 39 | 4.8 | 6.4 | 0.03 | 0.15 | 0.15 | 83 | 1011.4 |
| 20260905023604 | 28 | 41 | 3.2 | 6.4 | 0.03 | 0.15 | 0.15 | 83 | 1011.3 |
| 20260905023505 | 28 | 41 | 3.2 | 6.4 | 0.03 | 0.15 | 0.15 | 83 | 1011.4 |
| 20260905023405 | 28 | 41 | 3.2 | 6.4 | 0.03 | 0.15 | 0.15 | 83 | 1011.4 |
| 20260905023304 | 28 | 41 | 3.2 | 6.4 | 0.03 | 0.15 | 0.15 | 83 | 1011.3 |
| 20260905023203 | 28 | 41 | 3.2 | 6.4 | 0.03 | 0.15 | 0.15 | 83 | 1011.3 |
| 20260905023103 | 28 | 42 | 3.2 | 6.4 | 0.03 | 0.15 | 0.15 | 83 | 1011.3 |
| 20260905023005 | 28 | 42 | 1.6 | 6.4 | 0.03 | 0.15 | 0.15 | 83 | 1011.3 |
| 20260905022904 | 28 | 42 | 0.0 | 6.4 | 0.03 | 0.15 | 0.15 | 82 | 1011.3 |
| 20260905022803 | 28 | 42 | 0.0 | 6.4 | 0.03 | 0.15 | 0.15 | 82 | 1011.3 |
| 20260905022705 | 28 | 42 | 0.0 | 6.4 | 0.03 | 0.15 | 0.15 | 82 | 1011.3 |
| 20260905022603 | 28 | 44 | 3.2 | 6.4 | 0.03 | 0.15 | 0.15 | 82 | 1011.3 |
| 20260905022504 | 28 | 42 | 3.2 | 6.4 | 0.03 | 0.15 | 0.15 | 82 | 1011.3 |
| 20260905022403 | 29 | 42 | 4.8 | 6.4 | 0.03 | 0.15 | 0.15 | 82 | 1011.3 |
| 20260905022306 | 29 | 44 | 4.8 | 6.4 | 0.03 | 0.15 | 0.15 | 82 | 1011.3 |
| 20260905022204 | 29 | 48 | 3.2 | 6.4 | 0.03 | 0.15 | 0.15 | 82 | 1011.2 |
| 20260905022103 | 29 | 39 | 4.8 | 6.4 | 0.03 | 0.15 | 0.15 | 81 | 1011.2 |
| 20260905022004 | 29 | 68 | 4.8 | 6.4 | 0.03 | 0.15 | 0.15 | 81 | 1011.2 |
| 20260905021904 | 29 | 51 | 4.8 | 8.0 | 0.03 | 0.15 | 0.15 | 81 | 1011.2 |
| 20260905021804 | 29 | 51 | 3.2 | 8.0 | 0.03 | 0.15 | 0.15 | 81 | 1011.2 |
| 20260905021703 | 29 | 52 | 3.2 | 8.0 | 0.03 | 0.15 | 0.15 | 81 | 1011.2 |
| 20260905021603 | 29 | 51 | 3.2 | 8.0 | 0.03 | 0.15 | 0.15 | 81 | 1011.2 |
| 20260905021504 | 29 | 52 | 3.2 | 8.0 | 0.03 | 0.15 | 0.15 | 81 | 1011.3 |
| 20260905021403 | 29 | 52 | 3.2 | 8.0 | 0.03 | 0.15 | 0.15 | 81 | 1011.2 |
| 20260905021304 | 29 | 52 | 3.2 | 8.0 | 0.03 | 0.15 | 0.15 | 81 | 1011.3 |
| 20260905021204 | 29 | 52 | 4.8 | 8.0 | 0.03 | 0.15 | 0.15 | 81 | 1011.2 |
| 20260905021103 | 29 | 51 | 4.8 | 9.7 | 0.03 | 0.15 | 0.15 | 81 | 1011.2 |
| 20260905021004 | 29 | 51 | 4.8 | 9.7 | 0.03 | 0.15 | 0.15 | 81 | 1011.2 |
| 20260905020904 | 29 | 56 | 3.2 | 9.7 | 0.03 | 0.15 | 0.15 | 81 | 1011.2 |
| 20260905020803 | 29 | 59 | 4.8 | 9.7 | 0.03 | 0.15 | 0.15 | 80 | 1011.2 |
| 20260905020703 | 29 | 59 | 4.8 | 9.7 | 0.03 | 0.15 | 0.15 | 80 | 1011.2 |
| 20260905020603 | 29 | 59 | 4.8 | 9.7 | 0.03 | 0.15 | 0.15 | 80 | 1011.2 |
| 20260905020504 | 29 | 59 | 4.8 | 9.7 | 0.03 | 0.15 | 0.15 | 80 | 1011.2 |
| 20260905020402 | 29 | 59 | 4.8 | 9.7 | 0.03 | 0.15 | 0.15 | 80 | 1011.1 |
| 20260905020302 | 29 | 59 | 6.4 | 9.7 | 0.03 | 0.15 | 0.15 | 80 | 1011.0 |
| 20260905020204 | 29 | 61 | 6.4 | 9.7 | 0.03 | 0.15 | 0.15 | 80 | 1011.1 |
| 20260905020104 | 29 | 59 | 4.8 | 9.7 | 0.03 | 0.15 | 0.15 | 80 | 1011.0 |
| 20260905020002 | 29 | 59 | 6.4 | 9.7 | 0.03 | 0.13 | 0.15 | 80 | 1011.0 |
| 20260905015903 | 29 | 62 | 8.0 | 9.7 | 0.03 | 0.13 | 0.15 | 80 | 1011.0 |
| 20260905015803 | 29 | 58 | 6.4 | 8.0 | 0.03 | 0.13 | 0.13 | 80 | 1011.1 |
| 20260905015703 | 29 | 61 | 6.4 | 8.0 | 0.00 | 0.13 | 0.13 | 80 | 1011.0 |
| 20260905015603 | 29 | 63 | 4.8 | 8.0 | 0.00 | 0.13 | 0.13 | 80 | 1011.0 |
| 20260905015504 | 29 | 52 | 4.8 | 8.0 | 0.00 | 0.13 | 0.13 | 80 | 1011.0 |
| 20260905015402 | 29 | 49 | 4.8 | 8.0 | 0.00 | 0.13 | 0.13 | 80 | 1010.9 |
| 20260905015306 | 29 | 55 | 4.8 | 8.0 | 0.00 | 0.13 | 0.13 | 80 | 1010.9 |
| 20260905015203 | 29 | 52 | 6.4 | 8.0 | 0.00 | 0.13 | 0.13 | 80 | 1010.9 |
| 20260905015102 | 29 | 56 | 4.8 | 8.0 | 0.00 | 0.13 | 0.13 | 80 | 1010.9 |
| 20260905015004 | 29 | 61 | 4.8 | 8.0 | 0.00 | 0.13 | 0.13 | 80 | 1010.9 |
| 20260905014902 | 29 | 61 | 6.4 | 8.0 | 0.00 | 0.13 | 0.13 | 80 | 1010.9 |
| 20260905014803 | 29 | 58 | 6.4 | 8.0 | 0.00 | 0.13 | 0.13 | 80 | 1010.9 |
| 20260905014702 | 29 | 62 | 6.4 | 8.0 | 0.00 | 0.13 | 0.13 | 80 | 1010.9 |
| 20260905014601 | 29 | 56 | 4.8 | 8.0 | 0.00 | 0.13 | 0.13 | 80 | 1010.8 |
| 20260905014500 | 29 | 55 | 4.8 | 8.0 | 0.00 | 0.13 | 0.13 | 80 | 1010.9 |
| 20260905014358 | 29 | 55 | 4.8 | 8.0 | 0.00 | 0.13 | 0.13 | 80 | 1010.9 |
| 20260905014258 | 29 | 58 | 4.8 | 8.0 | 0.00 | 0.13 | 0.13 | 80 | 1010.9 |
| 20260905014155 | 29 | 56 | 4.8 | 8.0 | 0.00 | 0.13 | 0.13 | 80 | 1010.9 |
| 20260905014056 | 29 | 59 | 6.4 | 8.0 | 0.00 | 0.13 | 0.13 | 80 | 1010.9 |
| 20260905013952 | 29 | 61 | 6.4 | 8.0 | 0.00 | 0.13 | 0.13 | 80 | 1010.9 |
| 20260905013852 | 29 | 61 | 6.4 | 8.0 | 0.00 | 0.13 | 0.13 | 80 | 1010.8 |
| 20260905013749 | 29 | 63 | 6.4 | 8.0 | 0.00 | 0.13 | 0.13 | 80 | 1010.8 |
| 20260905013648 | 29 | 61 | 4.8 | 8.0 | 0.00 | 0.13 | 0.13 | 80 | 1010.8 |
| 20260905013546 | 29 | 61 | 3.2 | 6.4 | 0.00 | 0.13 | 0.13 | 80 | 1010.8 |
| 20260905013446 | 29 | 59 | 4.8 | 6.4 | 0.00 | 0.13 | 0.13 | 80 | 1010.8 |
| 20260905013344 | 29 | 58 | 4.8 | 6.4 | 0.00 | 0.13 | 0.13 | 80 | 1010.8 |
| 20260905013243 | 29 | 56 | 4.8 | 6.4 | 0.00 | 0.13 | 0.13 | 80 | 1010.8 |
| 20260905013140 | 29 | 54 | 3.2 | 6.4 | 0.00 | 0.13 | 0.13 | 80 | 1010.8 |
| 20260905013039 | 29 | 52 | 3.2 | 6.4 | 0.00 | 0.13 | 0.13 | 80 | 1010.7 |
| 20260905012937 | 29 | 54 | 1.6 | 6.4 | 0.00 | 0.13 | 0.13 | 80 | 1010.7 |
| 20260905012836 | 29 | 54 | 0.0 | 6.4 | 0.00 | 0.13 | 0.13 | 80 | 1010.8 |
| 20260905012734 | 29 | 54 | 0.0 | 6.4 | 0.00 | 0.13 | 0.13 | 80 | 1010.8 |
| 20260905012633 | 29 | 52 | 0.0 | 6.4 | 0.00 | 0.13 | 0.13 | 80 | 1010.7 |
| 20260905012531 | 29 | 51 | 3.2 | 6.4 | 0.00 | 0.13 | 0.13 | 80 | 1010.7 |
| 20260905012431 | 29 | 49 | 1.6 | 6.4 | 0.00 | 0.13 | 0.13 | 80 | 1010.7 |
| 20260905012332 | 29 | 49 | 0.0 | 4.8 | 0.00 | 0.13 | 0.13 | 79 | 1010.8 |
| 20260905012229 | 29 | 49 | 0.0 | 4.8 | 0.00 | 0.13 | 0.13 | 79 | 1010.7 |
| 20260905012129 | 29 | 49 | 1.6 | 4.8 | 0.00 | 0.13 | 0.13 | 79 | 1010.7 |
| 20260905012025 | 29 | 48 | 3.2 | 4.8 | 0.00 | 0.13 | 0.13 | 79 | 1010.7 |
| 20260905011921 | 29 | 82 | 1.6 | 4.8 | 0.00 | 0.13 | 0.13 | 79 | 1010.7 |
| 20260905011819 | 29 | 82 | 1.6 | 6.4 | 0.00 | 0.13 | 0.13 | 79 | 1010.6 |
| 20260905011717 | 30 | 79 | 1.6 | 6.4 | 0.00 | 0.13 | 0.13 | 79 | 1010.7 |
| 20260905011616 | 30 | 79 | 1.6 | 6.4 | 0.00 | 0.13 | 0.13 | 79 | 1010.6 |
| 20260905011516 | 30 | 79 | 1.6 | 6.4 | 0.00 | 0.13 | 0.13 | 79 | 1010.7 |
| 20260905011412 | 30 | 79 | 1.6 | 6.4 | 0.00 | 0.13 | 0.13 | 79 | 1010.6 |
| 20260905011312 | 30 | 79 | 3.2 | 6.4 | 0.00 | 0.13 | 0.13 | 79 | 1010.5 |
| 20260905011210 | 30 | 79 | 3.2 | 6.4 | 0.00 | 0.13 | 0.13 | 79 | 1010.5 |
| 20260905011109 | 30 | 79 | 3.2 | 6.4 | 0.00 | 0.13 | 0.13 | 78 | 1010.6 |
| 20260905011004 | 30 | 79 | 3.2 | 6.4 | 0.00 | 0.13 | 0.13 | 78 | 1010.5 |
| 20260905010902 | 30 | 73 | 1.6 | 6.4 | 0.00 | 0.13 | 0.13 | 78 | 1010.5 |
| 20260905010801 | 30 | 75 | 1.6 | 6.4 | 0.00 | 0.13 | 0.13 | 78 | 1010.5 |
| 20260905010702 | 30 | 76 | 3.2 | 6.4 | 0.00 | 0.13 | 0.13 | 78 | 1010.5 |
| 20260905010602 | 30 | 75 | 3.2 | 9.7 | 0.00 | 0.13 | 0.13 | 78 | 1010.4 |
| 20260905010502 | 30 | 72 | 4.8 | 9.7 | 0.00 | 0.13 | 0.13 | 78 | 1010.4 |
| 20260905010403 | 30 | 85 | 3.2 | 9.7 | 0.00 | 0.13 | 0.13 | 78 | 1010.4 |
| 20260905010303 | 30 | 85 | 4.8 | 9.7 | 0.00 | 0.13 | 0.13 | 78 | 1010.4 |
| 20260905010202 | 30 | 82 | 4.8 | 9.7 | 0.00 | 0.13 | 0.13 | 78 | 1010.4 |
| 20260905010004 | 30 | 92 | 4.8 | 9.7 | 0.00 | 0.13 | 0.13 | 78 | 1010.4 |
| 20260905005903 | 30 | 92 | 4.8 | 9.7 | 0.00 | 0.13 | 0.13 | 78 | 1010.4 |
| 20260905005802 | 30 | 92 | 6.4 | 9.7 | 0.00 | 0.13 | 0.13 | 78 | 1010.4 |
| 20260905005703 | 30 | 103 | 6.4 | 9.7 | 0.00 | 0.13 | 0.13 | 78 | 1010.4 |
| 20260905005602 | 30 | 106 | 6.4 | 8.0 | 0.00 | 0.13 | 0.13 | 78 | 1010.3 |
| 20260905005501 | 30 | 93 | 6.4 | 8.0 | 0.00 | 0.13 | 0.13 | 78 | 1010.4 |
| 20260905005401 | 30 | 90 | 6.4 | 8.0 | 0.00 | 0.13 | 0.13 | 78 | 1010.4 |
| 20260905005306 | 30 | 97 | 6.4 | 8.0 | 0.00 | 0.13 | 0.13 | 78 | 1010.4 |
| 20260905005201 | 30 | 103 | 6.4 | 8.0 | 0.00 | 0.13 | 0.13 | 78 | 1010.4 |
| 20260905005101 | 30 | 107 | 6.4 | 8.0 | 0.00 | 0.13 | 0.13 | 78 | 1010.4 |
| 20260905005003 | 30 | 106 | 6.4 | 8.0 | 0.00 | 0.13 | 0.13 | 78 | 1010.4 |
| 20260905004903 | 30 | 100 | 3.2 | 8.0 | 0.00 | 0.13 | 0.13 | 78 | 1010.4 |
| 20260905004802 | 30 | 100 | 3.2 | 8.0 | 0.00 | 0.13 | 0.13 | 78 | 1010.4 |
| 20260905004703 | 30 | 100 | 3.2 | 8.0 | 0.00 | 0.13 | 0.13 | 78 | 1010.4 |
| 20260905004602 | 30 | 100 | 3.2 | 8.0 | 0.00 | 0.13 | 0.13 | 78 | 1010.5 |
| 20260905004501 | 30 | 90 | 3.2 | 6.4 | 0.00 | 0.13 | 0.13 | 79 | 1010.5 |
| 20260905004401 | 30 | 133 | 3.2 | 6.4 | 0.00 | 0.13 | 0.13 | 79 | 1010.5 |
| 20260905004302 | 30 | 173 | 3.2 | 8.0 | 0.00 | 0.13 | 0.13 | 79 | 1010.5 |
| 20260905004201 | 30 | 80 | 3.2 | 8.0 | 0.00 | 0.13 | 0.13 | 78 | 1010.5 |
| 20260905004102 | 30 | 83 | 3.2 | 8.0 | 0.00 | 0.13 | 0.13 | 78 | 1010.4 |
| 20260905004001 | 30 | 83 | 3.2 | 8.0 | 0.00 | 0.13 | 0.13 | 78 | 1010.4 |
| 20260905003903 | 30 | 137 | 3.2 | 8.0 | 0.00 | 0.13 | 0.13 | 78 | 1010.4 |
| 20260905003801 | 30 | 124 | 3.2 | 8.0 | 0.00 | 0.13 | 0.13 | 78 | 1010.3 |
| 20260905003701 | 30 | 97 | 3.2 | 9.7 | 0.00 | 0.13 | 0.13 | 78 | 1010.4 |
| 20260905003602 | 30 | 79 | 3.2 | 11.3 | 0.00 | 0.13 | 0.13 | 78 | 1010.4 |
| 20260905003502 | 30 | 78 | 4.8 | 11.3 | 0.00 | 0.13 | 0.13 | 78 | 1010.3 |
| 20260905003403 | 30 | 78 | 4.8 | 11.3 | 0.00 | 0.13 | 0.13 | 78 | 1010.3 |
| 20260905003301 | 30 | 68 | 4.8 | 11.3 | 0.00 | 0.13 | 0.13 | 79 | 1010.3 |
| 20260905003203 | 30 | 114 | 4.8 | 11.3 | 0.00 | 0.13 | 0.13 | 79 | 1010.3 |
| 20260905003100 | 30 | 109 | 4.8 | 11.3 | 0.00 | 0.13 | 0.13 | 79 | 1010.2 |
| 20260905003002 | 30 | 111 | 6.4 | 11.3 | 0.00 | 0.13 | 0.13 | 79 | 1010.2 |
| 20260905002900 | 30 | 109 | 6.4 | 11.3 | 0.00 | 0.13 | 0.13 | 79 | 1010.1 |
| 20260905002801 | 30 | 116 | 8.0 | 11.3 | 0.00 | 0.13 | 0.13 | 79 | 1010.0 |
| 20260905002701 | 30 | 109 | 8.0 | 11.3 | 0.00 | 0.13 | 0.13 | 80 | 1010.0 |
| 20260905002600 | 30 | 124 | 6.4 | 9.7 | 0.00 | 0.13 | 0.13 | 80 | 1010.0 |
| 20260905002502 | 30 | 97 | 6.4 | 9.7 | 0.00 | 0.13 | 0.13 | 81 | 1010.0 |
| 20260905002400 | 30 | 106 | 6.4 | 9.7 | 0.00 | 0.13 | 0.13 | 81 | 1009.9 |
| 20260905002259 | 30 | 90 | 4.8 | 8.0 | 0.00 | 0.13 | 0.13 | 82 | 1009.9 |
| 20260905002202 | 30 | 75 | 4.8 | 6.4 | 0.00 | 0.13 | 0.13 | 82 | 1009.9 |
| 20260905002101 | 30 | 45 | 4.8 | 6.4 | 0.00 | 0.13 | 0.13 | 82 | 1009.9 |
| 20260905002000 | 30 | 45 | 4.8 | 6.4 | 0.00 | 0.13 | 0.13 | 82 | 1009.9 |
| 20260905001901 | 30 | 45 | 4.8 | 6.4 | 0.00 | 0.13 | 0.13 | 82 | 1009.9 |
| 20260905001802 | 30 | 45 | 4.8 | 8.0 | 0.00 | 0.13 | 0.13 | 82 | 1009.9 |
| 20260905001700 | 30 | 44 | 4.8 | 8.0 | 0.00 | 0.13 | 0.13 | 82 | 1009.9 |
| 20260905001601 | 30 | 44 | 4.8 | 8.0 | 0.00 | 0.13 | 0.13 | 83 | 1009.9 |
| 20260905001502 | 30 | 42 | 4.8 | 8.0 | 0.00 | 0.13 | 0.13 | 83 | 1009.9 |
| 20260905001400 | 30 | 42 | 4.8 | 8.0 | 0.00 | 0.13 | 0.13 | 83 | 1009.9 |
| 20260905001300 | 30 | 42 | 3.2 | 8.0 | 0.00 | 0.13 | 0.13 | 83 | 1010.0 |
| 20260905001200 | 30 | 42 | 3.2 | 8.0 | 0.00 | 0.13 | 0.13 | 83 | 1010.0 |
| 20260905001101 | 30 | 42 | 4.8 | 8.0 | 0.00 | 0.13 | 0.13 | 83 | 1010.1 |
| 20260905001001 | 30 | 42 | 6.4 | 8.0 | 0.00 | 0.13 | 0.13 | 82 | 1010.0 |
| 20260905000901 | 30 | 41 | 6.4 | 8.0 | 0.00 | 0.13 | 0.13 | 82 | 1010.0 |
| 20260905000802 | 30 | 35 | 4.8 | 6.4 | 0.00 | 0.13 | 0.13 | 83 | 1010.0 |
| 20260905000701 | 30 | 24 | 4.8 | 6.4 | 0.00 | 0.13 | 0.13 | 83 | 1010.0 |
| 20260905000602 | 30 | 0 | 4.8 | 6.4 | 0.00 | 0.13 | 0.13 | 83 | 1010.0 |
| 20260905000500 | 30 | 0 | 3.2 | 4.8 | 0.00 | 0.13 | 0.13 | 83 | 1010.0 |
| 20260905000402 | 30 | 0 | 3.2 | 4.8 | 0.00 | 0.13 | 0.13 | 84 | 1010.1 |
| 20260905000303 | 30 | 0 | 3.2 | 4.8 | 0.00 | 0.13 | 0.13 | 84 | 1010.0 |
| 20260905000200 | 30 | 0 | 1.6 | 4.8 | 0.00 | 0.13 | 0.13 | 85 | 1010.1 |
| 20260905000001 | 30 | 0 | 3.2 | 4.8 | 0.00 | 0.13 | 0.13 | 85 | 1010.1 |
| 20260904235901 | 30 | 0 | 1.6 | 4.8 | 0.00 | 0.13 | 0.13 | 84 | 1010.1 |
| 20260904235802 | 30 | 0 | 1.6 | 4.8 | 0.00 | 0.13 | 0.13 | 84 | 1010.1 |
| 20260904235701 | 30 | 0 | 1.6 | 4.8 | 0.00 | 0.13 | 0.13 | 84 | 1010.1 |
| 20260904235559 | 30 | 0 | 3.2 | 4.8 | 0.00 | 0.13 | 0.13 | 84 | 1010.0 |
| 20260904235500 | 30 | 0 | 3.2 | 4.8 | 0.00 | 0.13 | 0.13 | 84 | 1010.1 |
| 20260904235401 | 30 | 0 | 3.2 | 4.8 | 0.00 | 0.13 | 0.13 | 84 | 1010.1 |
| 20260904235259 | 30 | 0 | 3.2 | 4.8 | 0.00 | 0.13 | 0.13 | 84 | 1010.1 |
| 20260904235201 | 30 | 0 | 3.2 | 4.8 | 0.00 | 0.13 | 0.13 | 84 | 1010.1 |
| 20260904235102 | 30 | 0 | 3.2 | 4.8 | 0.00 | 0.13 | 0.13 | 84 | 1010.0 |
| 20260904235000 | 30 | 0 | 3.2 | 4.8 | 0.00 | 0.13 | 0.13 | 84 | 1010.0 |
| 20260904234859 | 30 | 0 | 3.2 | 4.8 | 0.00 | 0.13 | 0.13 | 84 | 1010.0 |
| 20260904234800 | 30 | 0 | 3.2 | 4.8 | 0.00 | 0.13 | 0.13 | 84 | 1010.0 |
| 20260904234701 | 30 | 0 | 3.2 | 4.8 | 0.00 | 0.13 | 0.13 | 83 | 1009.9 |
| 20260904234601 | 30 | 0 | 3.2 | 4.8 | 0.00 | 0.13 | 0.13 | 83 | 1009.9 |
| 20260904234459 | 30 | 0 | 3.2 | 4.8 | 0.00 | 0.13 | 0.13 | 83 | 1009.9 |
| 20260904234400 | 30 | 0 | 3.2 | 4.8 | 0.00 | 0.13 | 0.13 | 82 | 1009.9 |
| 20260904234259 | 30 | 0 | 3.2 | 4.8 | 0.00 | 0.13 | 0.13 | 82 | 1010.0 |
| 20260904234159 | 30 | 0 | 3.2 | 4.8 | 0.00 | 0.13 | 0.13 | 82 | 1010.0 |
| 20260904234100 | 30 | 0 | 3.2 | 4.8 | 0.00 | 0.13 | 0.13 | 83 | 1010.0 |
| 20260904234001 | 30 | 0 | 3.2 | 4.8 | 0.00 | 0.13 | 0.13 | 82 | 1010.1 |
| 20260904233900 | 30 | 0 | 3.2 | 4.8 | 0.00 | 0.13 | 0.13 | 83 | 1010.1 |
| 20260904233800 | 30 | 0 | 3.2 | 4.8 | 0.00 | 0.13 | 0.13 | 83 | 1010.1 |
| 20260904233659 | 30 | 0 | 3.2 | 4.8 | 0.00 | 0.13 | 0.13 | 83 | 1010.1 |
| 20260904233600 | 30 | 0 | 3.2 | 4.8 | 0.00 | 0.13 | 0.13 | 82 | 1010.1 |
| 20260904233500 | 30 | 0 | 3.2 | 6.4 | 0.00 | 0.13 | 0.13 | 81 | 1010.2 |
| 20260904233400 | 30 | 0 | 3.2 | 6.4 | 0.00 | 0.13 | 0.13 | 81 | 1010.1 |
| 20260904233300 | 30 | 0 | 3.2 | 6.4 | 0.00 | 0.13 | 0.13 | 80 | 1010.1 |
| 20260904233200 | 30 | 0 | 3.2 | 6.4 | 0.00 | 0.13 | 0.13 | 80 | 1010.1 |
| 20260904233100 | 30 | 0 | 3.2 | 6.4 | 0.00 | 0.13 | 0.13 | 80 | 1010.2 |
| 20260904233000 | 30 | 0 | 3.2 | 6.4 | 0.00 | 0.13 | 0.13 | 81 | 1010.2 |
| 20260904232900 | 30 | 0 | 3.2 | 6.4 | 0.00 | 0.13 | 0.13 | 80 | 1010.1 |
| 20260904232800 | 30 | 0 | 3.2 | 6.4 | 0.00 | 0.13 | 0.13 | 80 | 1010.2 |
| 20260904232700 | 30 | 0 | 3.2 | 6.4 | 0.00 | 0.13 | 0.13 | 81 | 1010.2 |
| 20260904232559 | 30 | 0 | 4.8 | 6.4 | 0.00 | 0.13 | 0.13 | 81 | 1010.2 |
| 20260904232500 | 30 | 0 | 3.2 | 6.4 | 0.00 | 0.13 | 0.13 | 82 | 1010.2 |
| 20260904232400 | 30 | 0 | 3.2 | 6.4 | 0.00 | 0.13 | 0.13 | 81 | 1010.2 |
| 20260904232300 | 30 | 0 | 3.2 | 6.4 | 0.00 | 0.13 | 0.13 | 81 | 1010.3 |
| 20260904232159 | 30 | 358 | 3.2 | 6.4 | 0.00 | 0.13 | 0.13 | 81 | 1010.2 |
| 20260904232059 | 30 | 358 | 4.8 | 6.4 | 0.00 | 0.13 | 0.13 | 80 | 1010.2 |
| 20260904231959 | 30 | 357 | 4.8 | 6.4 | 0.00 | 0.13 | 0.13 | 80 | 1010.2 |
| 20260904231901 | 30 | 357 | 3.2 | 6.4 | 0.00 | 0.13 | 0.13 | 80 | 1010.3 |
| 20260904231800 | 30 | 355 | 3.2 | 6.4 | 0.00 | 0.13 | 0.13 | 81 | 1010.3 |
| 20260904231659 | 30 | 331 | 3.2 | 6.4 | 0.00 | 0.13 | 0.13 | 81 | 1010.3 |
| 20260904231601 | 30 | 330 | 3.2 | 6.4 | 0.00 | 0.13 | 0.13 | 81 | 1010.2 |
| 20260904231459 | 30 | 329 | 3.2 | 6.4 | 0.00 | 0.13 | 0.13 | 80 | 1010.2 |
| 20260904231400 | 30 | 329 | 3.2 | 8.0 | 0.00 | 0.13 | 0.13 | 80 | 1010.2 |
| 20260904231300 | 30 | 329 | 3.2 | 8.0 | 0.00 | 0.13 | 0.13 | 80 | 1010.2 |
| 20260904231202 | 30 | 324 | 3.2 | 8.0 | 0.00 | 0.13 | 0.13 | 80 | 1010.2 |
| 20260904231058 | 30 | 324 | 4.8 | 8.0 | 0.00 | 0.13 | 0.13 | 79 | 1010.2 |
| 20260904230959 | 30 | 324 | 3.2 | 8.0 | 0.00 | 0.13 | 0.13 | 80 | 1010.2 |
| 20260904230900 | 30 | 324 | 3.2 | 8.0 | 0.00 | 0.13 | 0.13 | 80 | 1010.2 |
| 20260904230759 | 30 | 324 | 4.8 | 8.0 | 0.00 | 0.13 | 0.13 | 81 | 1010.1 |
| 20260904230700 | 30 | 324 | 4.8 | 8.0 | 0.00 | 0.13 | 0.13 | 80 | 1010.1 |
| 20260904230601 | 30 | 323 | 6.4 | 8.0 | 0.00 | 0.13 | 0.13 | 80 | 1010.2 |
| 20260904230501 | 30 | 323 | 6.4 | 8.0 | 0.00 | 0.13 | 0.13 | 81 | 1010.1 |
| 20260904230359 | 30 | 330 | 4.8 | 8.0 | 0.00 | 0.13 | 0.13 | 82 | 1010.1 |
| 20260904230259 | 30 | 330 | 4.8 | 8.0 | 0.00 | 0.13 | 0.13 | 82 | 1010.1 |
| 20260904230159 | 30 | 330 | 4.8 | 8.0 | 0.00 | 0.13 | 0.13 | 82 | 1010.2 |
| 20260904230100 | 30 | 334 | 3.2 | 6.4 | 0.00 | 0.13 | 0.13 | 82 | 1010.2 |
| 20260904225958 | 30 | 334 | 3.2 | 6.4 | 0.00 | 0.13 | 0.00 | 82 | 1010.1 |
| 20260904225859 | 30 | 334 | 4.8 | 6.4 | 0.00 | 0.13 | 0.00 | 82 | 1010.2 |
| 20260904225800 | 30 | 334 | 4.8 | 6.4 | 0.00 | 0.13 | 0.00 | 82 | 1010.2 |
| 20260904225659 | 30 | 334 | 4.8 | 6.4 | 0.00 | 0.13 | 0.00 | 84 | 1010.2 |
| 20260904225600 | 30 | 334 | 3.2 | 6.4 | 0.00 | 0.13 | 0.00 | 84 | 1010.1 |
| 20260904225459 | 30 | 334 | 3.2 | 6.4 | 0.00 | 0.13 | 0.00 | 84 | 1010.2 |
| 20260904225359 | 30 | 334 | 3.2 | 6.4 | 0.00 | 0.13 | 0.00 | 84 | 1010.1 |
| 20260904225300 | 30 | 334 | 3.2 | 6.4 | 0.00 | 0.13 | 0.00 | 84 | 1010.1 |
| 20260904225158 | 30 | 334 | 3.2 | 4.8 | 0.00 | 0.13 | 0.00 | 84 | 1010.2 |
| 20260904225058 | 30 | 334 | 3.2 | 4.8 | 0.00 | 0.13 | 0.00 | 84 | 1010.1 |
| 20260904224959 | 30 | 334 | 3.2 | 4.8 | 0.00 | 0.13 | 0.00 | 84 | 1010.1 |
| 20260904224859 | 30 | 334 | 3.2 | 6.4 | 0.00 | 0.13 | 0.00 | 84 | 1010.1 |
| 20260904224759 | 30 | 334 | 3.2 | 6.4 | 0.00 | 0.13 | 0.00 | 83 | 1010.1 |
| 20260904224659 | 30 | 334 | 3.2 | 6.4 | 0.00 | 0.13 | 0.00 | 84 | 1010.1 |
| 20260904224600 | 30 | 334 | 3.2 | 6.4 | 0.00 | 0.13 | 0.00 | 84 | 1010.1 |
| 20260904224500 | 30 | 334 | 3.2 | 6.4 | 0.00 | 0.13 | 0.00 | 84 | 1010.1 |
| 20260904224358 | 30 | 334 | 3.2 | 6.4 | 0.00 | 0.13 | 0.00 | 84 | 1010.1 |
| 20260904224258 | 29 | 334 | 3.2 | 6.4 | 0.00 | 0.13 | 0.00 | 84 | 1010.1 |
| 20260904224158 | 29 | 334 | 3.2 | 6.4 | 0.00 | 0.13 | 0.00 | 84 | 1010.1 |
| 20260904224058 | 29 | 334 | 4.8 | 6.4 | 0.00 | 0.13 | 0.00 | 83 | 1010.2 |
| 20260904223959 | 29 | 334 | 3.2 | 6.4 | 0.03 | 0.13 | 0.00 | 83 | 1010.2 |
| 20260904223900 | 29 | 334 | 3.2 | 8.0 | 0.03 | 0.13 | 0.00 | 85 | 1010.2 |
| 20260904223800 | 29 | 334 | 3.2 | 8.0 | 0.08 | 0.13 | 0.00 | 85 | 1010.2 |
| 20260904223657 | 29 | 334 | 3.2 | 8.0 | 0.10 | 0.13 | 0.00 | 87 | 1010.1 |
| 20260904223559 | 28 | 331 | 3.2 | 8.0 | 0.13 | 0.13 | 0.00 | 86 | 1010.2 |
| 20260904223500 | 28 | 331 | 3.2 | 8.0 | 0.13 | 0.13 | 0.00 | 86 | 1010.2 |
| 20260904223359 | 28 | 331 | 3.2 | 8.0 | 0.13 | 0.13 | 0.00 | 86 | 1010.1 |
| 20260904223232 | 28 | 331 | 4.8 | 8.0 | 0.13 | 0.13 | 0.00 | 86 | 1010.1 |
| 20260904223125 | 28 | 331 | 4.8 | 9.7 | 0.13 | 0.13 | 0.00 | 87 | 1010.2 |
| 20260904223021 | 28 | 330 | 4.8 | 9.7 | 0.13 | 0.13 | 0.00 | 88 | 1010.1 |
| 20260904222918 | 28 | 330 | 3.2 | 9.7 | 0.13 | 0.13 | 0.00 | 88 | 1010.1 |
| 20260904222818 | 28 | 316 | 3.2 | 9.7 | 0.13 | 0.13 | 0.00 | 88 | 1010.2 |
| 20260904222715 | 28 | 316 | 4.8 | 9.7 | 0.13 | 0.13 | 0.00 | 89 | 1010.2 |
| 20260904222612 | 28 | 316 | 6.4 | 9.7 | 0.13 | 0.13 | 0.00 | 89 | 1010.2 |
| 20260904222510 | 27 | 316 | 4.8 | 9.7 | 0.13 | 0.13 | 0.00 | 89 | 1010.3 |
| 20260904222406 | 27 | 314 | 6.4 | 9.7 | 0.13 | 0.13 | 0.00 | 89 | 1010.2 |
| 20260904222306 | 27 | 314 | 8.0 | 9.7 | 0.13 | 0.13 | 0.00 | 89 | 1010.3 |
| 20260904222203 | 27 | 299 | 6.4 | 8.0 | 0.13 | 0.13 | 0.00 | 91 | 1010.3 |
| 20260904222104 | 27 | 334 | 4.8 | 8.0 | 0.13 | 0.13 | 0.00 | 91 | 1010.4 |
| 20260904222003 | 27 | 334 | 4.8 | 8.0 | 0.13 | 0.13 | 0.00 | 91 | 1010.3 |
| 20260904221904 | 27 | 341 | 3.2 | 8.0 | 0.13 | 0.13 | 0.00 | 91 | 1010.3 |
| 20260904221801 | 27 | 341 | 3.2 | 8.0 | 0.13 | 0.13 | 0.00 | 91 | 1010.3 |
| 20260904221703 | 27 | 341 | 3.2 | 8.0 | 0.13 | 0.13 | 0.00 | 91 | 1010.3 |
| 20260904221603 | 27 | 341 | 3.2 | 8.0 | 0.13 | 0.13 | 0.00 | 91 | 1010.3 |
| 20260904221503 | 27 | 341 | 3.2 | 8.0 | 0.13 | 0.13 | 0.00 | 90 | 1010.3 |
| 20260904221402 | 27 | 340 | 3.2 | 8.0 | 0.13 | 0.13 | 0.00 | 92 | 1010.3 |
| 20260904221304 | 27 | 340 | 4.8 | 8.0 | 0.13 | 0.13 | 0.00 | 91 | 1010.4 |
| 20260904221203 | 27 | 340 | 3.2 | 8.0 | 0.13 | 0.13 | 0.00 | 91 | 1010.4 |
| 20260904221102 | 27 | 340 | 3.2 | 8.0 | 0.13 | 0.13 | 0.00 | 91 | 1010.3 |
| 20260904221003 | 27 | 340 | 3.2 | 8.0 | 0.13 | 0.13 | 0.00 | 91 | 1010.4 |
| 20260904220904 | 27 | 338 | 4.8 | 11.3 | 0.13 | 0.13 | 0.00 | 91 | 1010.4 |
| 20260904220803 | 27 | 338 | 4.8 | 11.3 | 0.13 | 0.13 | 0.00 | 91 | 1010.4 |
| 20260904220704 | 27 | 337 | 4.8 | 11.3 | 0.13 | 0.13 | 0.00 | 90 | 1010.5 |
| 20260904220603 | 27 | 337 | 6.4 | 11.3 | 0.13 | 0.13 | 0.00 | 89 | 1010.5 |
| 20260904220502 | 27 | 321 | 6.4 | 11.3 | 0.13 | 0.13 | 0.00 | 90 | 1010.5 |
| 20260904220403 | 27 | 299 | 9.7 | 11.3 | 0.13 | 0.13 | 0.13 | 91 | 1010.6 |
| 20260904220304 | 27 | 299 | 9.7 | 11.3 | 0.13 | 0.13 | 0.13 | 91 | 1010.6 |
| 20260904220201 | 27 | 299 | 9.7 | 11.3 | 0.13 | 0.13 | 0.13 | 91 | 1010.5 |
| 20260904220058 | 27 | 299 | 9.7 | 11.3 | 0.13 | 0.13 | 0.13 | 91 | 1010.6 |
| 20260904215957 | 27 | 299 | 9.7 | 11.3 | 0.00 | 0.00 | 0.13 | 92 | 1010.5 |
| 20260904215858 | 27 | 303 | 8.0 | 9.7 | 0.00 | 0.00 | 0.13 | 92 | 1010.5 |
| 20260904215757 | 27 | 309 | 4.8 | 8.0 | 0.00 | 0.00 | 0.13 | 91 | 1010.6 |
| 20260904215658 | 27 | 323 | 3.2 | 6.4 | 0.00 | 0.00 | 0.13 | 91 | 1010.5 |
| 20260904215600 | 27 | 323 | 3.2 | 6.4 | 0.00 | 0.00 | 0.13 | 91 | 1010.5 |
| 20260904215458 | 27 | 323 | 0.0 | 6.4 | 0.00 | 0.00 | 0.13 | 91 | 1010.6 |
| 20260904215358 | 27 | 323 | 0.0 | 6.4 | 0.00 | 0.00 | 0.13 | 91 | 1010.6 |
| 20260904215259 | 27 | 323 | 0.0 | 6.4 | 0.00 | 0.00 | 0.13 | 92 | 1010.6 |
| 20260904215159 | 27 | 323 | 1.6 | 6.4 | 0.00 | 0.00 | 0.13 | 92 | 1010.6 |
| 20260904215057 | 27 | 323 | 3.2 | 6.4 | 0.00 | 0.00 | 0.13 | 91 | 1010.6 |
| 20260904214957 | 27 | 323 | 3.2 | 6.4 | 0.00 | 0.00 | 0.13 | 90 | 1010.5 |
| 20260904214857 | 27 | 320 | 3.2 | 6.4 | 0.00 | 0.00 | 0.13 | 90 | 1010.6 |
| 20260904214758 | 27 | 317 | 3.2 | 6.4 | 0.00 | 0.00 | 0.13 | 90 | 1010.6 |
| 20260904214659 | 27 | 317 | 1.6 | 6.4 | 0.00 | 0.00 | 0.13 | 89 | 1010.7 |
| 20260904214558 | 27 | 317 | 1.6 | 6.4 | 0.00 | 0.00 | 0.13 | 90 | 1010.8 |
| 20260904214457 | 27 | 317 | 3.2 | 6.4 | 0.00 | 0.00 | 0.13 | 90 | 1010.7 |
| 20260904214358 | 27 | 317 | 3.2 | 6.4 | 0.00 | 0.00 | 0.13 | 89 | 1010.7 |
| 20260904214256 | 27 | 317 | 3.2 | 6.4 | 0.00 | 0.00 | 0.13 | 89 | 1010.8 |
| 20260904214159 | 27 | 317 | 4.8 | 6.4 | 0.00 | 0.00 | 0.13 | 88 | 1010.8 |
| 20260904214057 | 27 | 317 | 6.4 | 6.4 | 0.00 | 0.00 | 0.10 | 88 | 1010.7 |
| 20260904213957 | 27 | 317 | 4.8 | 6.4 | 0.00 | 0.00 | 0.10 | 88 | 1010.7 |
| 20260904213859 | 27 | 317 | 3.2 | 4.8 | 0.00 | 0.00 | 0.05 | 87 | 1010.7 |
| 20260904213756 | 27 | 317 | 3.2 | 4.8 | 0.00 | 0.00 | 0.03 | 86 | 1010.7 |
| 20260904213657 | 27 | 317 | 3.2 | 4.8 | 0.00 | 0.00 | 0.00 | 86 | 1010.6 |
| 20260904213558 | 27 | 317 | 3.2 | 4.8 | 0.00 | 0.00 | 0.00 | 85 | 1010.6 |
| 20260904213457 | 27 | 317 | 3.2 | 4.8 | 0.00 | 0.00 | 0.00 | 85 | 1010.6 |
| 20260904213357 | 27 | 316 | 3.2 | 0.0 | 0.00 | 0.00 | 0.00 | 85 | 1010.6 |
| 20260904213257 | -17 | 0.0 | 0.0 | 0.00 | 0.00 | 0.00 | 1010.6 | ||
| 20260904212732 | 30 | 104 | 14.5 | 20.9 | 0.08 | 0.00 | 0.08 | 78 | 1011.0 |
| 20260904212632 | 30 | 104 | 14.5 | 20.9 | 0.08 | 0.00 | 0.08 | 78 | 1011.1 |
| 20260904212532 | 30 | 104 | 14.5 | 20.9 | 0.08 | 0.00 | 0.08 | 78 | 1011.1 |
| 20260904212432 | 30 | 104 | 14.5 | 20.9 | 0.08 | 0.00 | 0.08 | 78 | 1011.0 |
| 20260904212332 | 30 | 104 | 14.5 | 20.9 | 0.08 | 0.00 | 0.08 | 78 | 1010.9 |
| 20260904212232 | 30 | 89 | 16.1 | 20.9 | 0.03 | 0.00 | 0.03 | 78 | 1010.9 |
| 20260904212132 | 30 | 96 | 16.1 | 20.9 | 0.03 | 0.00 | 0.00 | 77 | 1010.7 |
| 20260904212031 | 30 | 83 | 14.5 | 24.1 | 0.00 | 0.00 | 0.00 | 77 | 1010.7 |
| 20260904211932 | 30 | 93 | 16.1 | 24.1 | 0.00 | 0.00 | 0.00 | 76 | 1010.6 |
| 20260904211831 | 31 | 102 | 16.1 | 24.1 | 0.00 | 0.00 | 0.00 | 76 | 1010.6 |
| 20260904211732 | 31 | 96 | 12.9 | 24.1 | 0.00 | 0.00 | 0.00 | 76 | 1010.6 |
| 20260904211631 | 31 | 63 | 12.9 | 24.1 | 0.00 | 0.00 | 0.00 | 75 | 1010.5 |
| 20260904211531 | 31 | 114 | 14.5 | 24.1 | 0.00 | 0.00 | 0.00 | 74 | 1010.6 |
| 20260904211432 | 31 | 117 | 12.9 | 24.1 | 0.00 | 0.00 | 0.00 | 74 | 1010.6 |
| 20260904211332 | 31 | 76 | 14.5 | 24.1 | 0.00 | 0.00 | 0.00 | 73 | 1010.6 |
| 20260904211231 | 31 | 99 | 17.7 | 24.1 | 0.00 | 0.00 | 0.00 | 73 | 1010.7 |
| 20260904211131 | 31 | 73 | 17.7 | 24.1 | 0.00 | 0.00 | 0.00 | 72 | 1010.7 |
| 20260904211031 | 31 | 114 | 14.5 | 20.9 | 0.00 | 0.00 | 0.00 | 72 | 1010.6 |
| 20260904210931 | 31 | 102 | 11.3 | 17.7 | 0.00 | 0.00 | 0.00 | 72 | 1010.7 |
| 20260904210831 | 31 | 121 | 8.0 | 17.7 | 0.00 | 0.00 | 0.00 | 72 | 1010.7 |
| 20260904210731 | 31 | 52 | 4.8 | 8.0 | 0.00 | 0.00 | 0.00 | 72 | 1010.6 |
| 20260904210631 | 31 | 0 | 3.2 | 6.4 | 0.00 | 0.00 | 0.00 | 72 | 1010.5 |
| 20260904210531 | 32 | 0 | 3.2 | 6.4 | 0.00 | 0.00 | 0.00 | 73 | 1010.5 |
| 20260904210433 | 32 | 0 | 3.2 | 8.0 | 0.00 | 0.00 | 0.00 | 72 | 1010.5 |
| 20260904210333 | 32 | 0 | 3.2 | 8.0 | 0.00 | 0.00 | 0.00 | 72 | 1010.4 |
| 20260904210231 | 32 | 0 | 4.8 | 8.0 | 0.00 | 0.00 | 0.00 | 72 | 1010.4 |
| 20260904210131 | 32 | 0 | 4.8 | 8.0 | 0.00 | 0.00 | 0.00 | 72 | 1010.5 |
| 20260904210033 | 32 | 0 | 4.8 | 8.0 | 0.00 | 0.00 | 0.00 | 72 | 1010.5 |
| 20260904205930 | 32 | 0 | 4.8 | 8.0 | 0.00 | 0.00 | 0.00 | 72 | 1010.6 |
| 20260904205830 | 32 | 0 | 4.8 | 8.0 | 0.00 | 0.00 | 0.00 | 72 | 1010.6 |
| 20260904205732 | 32 | 0 | 4.8 | 8.0 | 0.00 | 0.00 | 0.00 | 72 | 1010.6 |
| 20260904205633 | 32 | 8 | 4.8 | 8.0 | 0.00 | 0.00 | 0.00 | 72 | 1010.7 |
| 20260904205531 | 32 | 8 | 3.2 | 8.0 | 0.00 | 0.00 | 0.00 | 72 | 1010.8 |
| 20260904205431 | 32 | 0 | 3.2 | 6.4 | 0.00 | 0.00 | 0.00 | 71 | 1010.6 |
| 20260904205333 | 32 | 0 | 3.2 | 6.4 | 0.00 | 0.00 | 0.00 | 71 | 1010.7 |
| 20260904205231 | 32 | 0 | 3.2 | 6.4 | 0.00 | 0.00 | 0.00 | 70 | 1010.7 |
| 20260904205132 | 32 | 0 | 4.8 | 6.4 | 0.00 | 0.00 | 0.00 | 71 | 1010.7 |
| 20260904205032 | 32 | 0 | 4.8 | 6.4 | 0.00 | 0.00 | 0.00 | 71 | 1010.7 |
| 20260904204932 | 32 | 0 | 4.8 | 6.4 | 0.00 | 0.00 | 0.00 | 71 | 1010.7 |
| 20260904204831 | 32 | 0 | 4.8 | 6.4 | 0.00 | 0.00 | 0.00 | 71 | 1010.8 |
| 20260904204731 | 32 | 316 | 4.8 | 6.4 | 0.00 | 0.00 | 0.00 | 70 | 1010.8 |
| 20260904204632 | 32 | 316 | 3.2 | 6.4 | 0.00 | 0.00 | 0.00 | 70 | 1010.7 |
| 20260904204532 | 32 | 316 | 3.2 | 6.4 | 0.00 | 0.00 | 0.00 | 70 | 1010.7 |
| 20260904204431 | 32 | 316 | 4.8 | 6.4 | 0.00 | 0.00 | 0.00 | 71 | 1010.8 |
| 20260904204330 | 32 | 314 | 4.8 | 6.4 | 0.00 | 0.00 | 0.00 | 71 | 1010.9 |
| 20260904204227 | 32 | 314 | 3.2 | 6.4 | 0.00 | 0.00 | 0.00 | 71 | 1010.8 |
| 20260904204125 | 32 | 314 | 1.6 | 6.4 | 0.00 | 0.00 | 0.00 | 71 | 1010.9 |
| 20260904204025 | 32 | 314 | 1.6 | 6.4 | 0.00 | 0.00 | 0.00 | 71 | 1010.9 |
| 20260904203924 | 32 | 314 | 4.8 | 6.4 | 0.00 | 0.00 | 0.00 | 71 | 1010.8 |
| 20260904203824 | 32 | 314 | 4.8 | 6.4 | 0.00 | 0.00 | 0.00 | 71 | 1010.9 |
| 20260904203723 | 32 | 314 | 4.8 | 6.4 | 0.00 | 0.00 | 0.00 | 71 | 1010.9 |
| 20260904203622 | 32 | 345 | 3.2 | 6.4 | 0.00 | 0.00 | 0.00 | 71 | 1011.0 |
| 20260904203521 | 32 | 0 | 3.2 | 4.8 | 0.00 | 0.00 | 0.00 | 70 | 1010.9 |
| 20260904203419 | 32 | 1 | 3.2 | 4.8 | 0.00 | 0.00 | 0.00 | 69 | 1010.9 |
| 20260904203317 | 32 | 0 | 3.2 | 4.8 | 0.00 | 0.00 | 0.00 | 69 | 1010.9 |
| 20260904203216 | 32 | 0 | 3.2 | 4.8 | 0.00 | 0.00 | 0.00 | 69 | 1010.9 |
| 20260904203110 | 33 | 0 | 1.6 | 6.4 | 0.00 | 0.00 | 0.00 | 70 | 1010.9 |
| 20260904203010 | 32 | 0 | 1.6 | 6.4 | 0.00 | 0.00 | 0.00 | 69 | 1011.0 |
| 20260904202909 | 32 | 0 | 1.6 | 8.0 | 0.00 | 0.00 | 0.00 | 69 | 1011.0 |
| 20260904202807 | 32 | 0 | 1.6 | 8.0 | 0.00 | 0.00 | 0.00 | 68 | 1011.0 |
| 20260904202705 | 32 | 49 | 3.2 | 8.0 | 0.00 | 0.00 | 0.00 | 68 | 1011.0 |
| 20260904202602 | 32 | 49 | 1.6 | 8.0 | 0.00 | 0.00 | 0.00 | 69 | 1011.1 |
| 20260904202503 | 32 | 127 | 0.0 | 8.0 | 0.00 | 0.00 | 0.00 | 68 | 1011.1 |
| 20260904202403 | 32 | 141 | 1.6 | 9.7 | 0.00 | 0.00 | 0.00 | 67 | 1011.1 |
| 20260904202305 | 32 | 141 | 3.2 | 9.7 | 0.00 | 0.00 | 0.00 | 67 | 1011.2 |
| 20260904202202 | 33 | 141 | 4.8 | 9.7 | 0.00 | 0.00 | 0.00 | 67 | 1011.1 |
| 20260904202102 | 33 | 148 | 6.4 | 9.7 | 0.00 | 0.00 | 0.00 | 67 | 1011.1 |
| 20260904202004 | 33 | 118 | 6.4 | 14.5 | 0.00 | 0.00 | 0.00 | 67 | 1011.2 |
| 20260904201902 | 33 | 182 | 4.8 | 14.5 | 0.00 | 0.00 | 0.00 | 67 | 1011.1 |
| 20260904201802 | 33 | 200 | 3.2 | 14.5 | 0.00 | 0.00 | 0.00 | 67 | 1011.1 |
| 20260904201703 | 33 | 65 | 3.2 | 14.5 | 0.00 | 0.00 | 0.00 | 67 | 1011.2 |
| 20260904201603 | 33 | 61 | 4.8 | 14.5 | 0.00 | 0.00 | 0.00 | 66 | 1011.2 |
| 20260904201503 | 33 | 61 | 6.4 | 14.5 | 0.00 | 0.00 | 0.00 | 65 | 1011.2 |
| 20260904201402 | 33 | 86 | 4.8 | 14.5 | 0.00 | 0.00 | 0.00 | 65 | 1011.2 |
| 20260904201302 | 33 | 83 | 8.0 | 14.5 | 0.00 | 0.00 | 0.00 | 64 | 1011.2 |
| 20260904201202 | 34 | 96 | 9.7 | 14.5 | 0.00 | 0.00 | 0.00 | 64 | 1011.2 |
| 20260904201103 | 34 | 94 | 9.7 | 14.5 | 0.00 | 0.00 | 0.00 | 64 | 1011.2 |
| 20260904201004 | 34 | 80 | 4.8 | 14.5 | 0.00 | 0.00 | 0.00 | 64 | 1011.2 |
| 20260904200902 | 34 | 51 | 3.2 | 9.7 | 0.00 | 0.00 | 0.00 | 64 | 1011.2 |
| 20260904200803 | 34 | 345 | 3.2 | 9.7 | 0.00 | 0.00 | 0.00 | 65 | 1011.1 |
| 20260904200704 | 34 | 344 | 4.8 | 9.7 | 0.00 | 0.00 | 0.00 | 65 | 1011.2 |
| 20260904200602 | 34 | 343 | 4.8 | 9.7 | 0.00 | 0.00 | 0.00 | 65 | 1011.2 |
| 20260904200505 | 34 | 320 | 4.8 | 8.0 | 0.00 | 0.00 | 0.00 | 65 | 1011.1 |
| 20260904200403 | 34 | 330 | 6.4 | 8.0 | 0.00 | 0.00 | 0.00 | 65 | 1011.2 |
| 20260904200303 | 34 | 331 | 6.4 | 8.0 | 0.00 | 0.00 | 0.00 | 66 | 1011.1 |
| 20260904200202 | 33 | 317 | 6.4 | 8.0 | 0.00 | 0.00 | 0.00 | 66 | 1011.2 |
| 20260904200004 | 33 | 278 | 1.6 | 9.7 | 0.00 | 0.00 | 0.00 | 66 | 1011.1 |
| 20260904195902 | 33 | 4 | 0.0 | 9.7 | 0.00 | 0.00 | 0.00 | 66 | 1011.1 |
| 20260904195802 | 33 | 4 | 0.0 | 9.7 | 0.00 | 0.00 | 0.00 | 66 | 1011.2 |
| 20260904195702 | 33 | 27 | 1.6 | 9.7 | 0.00 | 0.00 | 0.00 | 66 | 1011.2 |
| 20260904195603 | 33 | 28 | 3.2 | 9.7 | 0.00 | 0.00 | 0.00 | 67 | 1011.2 |
| 20260904195502 | 33 | 14 | 3.2 | 9.7 | 0.00 | 0.00 | 0.00 | 68 | 1011.2 |
| 20260904195402 | 33 | 79 | 4.8 | 9.7 | 0.00 | 0.00 | 0.00 | 67 | 1011.3 |
| 20260904195306 | 33 | 80 | 6.4 | 9.7 | 0.00 | 0.00 | 0.00 | 67 | 1011.2 |
| 20260904195202 | 33 | 102 | 6.4 | 9.7 | 0.00 | 0.00 | 0.00 | 67 | 1011.2 |
| 20260904195103 | 33 | 182 | 6.4 | 9.7 | 0.00 | 0.00 | 0.00 | 67 | 1011.2 |
| 20260904195003 | 33 | 131 | 6.4 | 9.7 | 0.00 | 0.00 | 0.00 | 67 | 1011.2 |
| 20260904194902 | 33 | 124 | 4.8 | 9.7 | 0.00 | 0.00 | 0.00 | 68 | 1011.3 |
| 20260904194802 | 33 | 97 | 4.8 | 8.0 | 0.00 | 0.00 | 0.00 | 68 | 1011.2 |
| 20260904194702 | 33 | 110 | 3.2 | 8.0 | 0.00 | 0.00 | 0.00 | 69 | 1011.3 |
| 20260904194603 | 33 | 13 | 1.6 | 8.0 | 0.00 | 0.00 | 0.00 | 69 | 1011.3 |
| 20260904194502 | 33 | 302 | 1.6 | 8.0 | 0.00 | 0.00 | 0.00 | 69 | 1011.4 |
| 20260904194402 | 33 | 302 | 0.0 | 8.0 | 0.00 | 0.00 | 0.00 | 69 | 1011.3 |
| 20260904194303 | 33 | 307 | 0.0 | 8.0 | 0.00 | 0.00 | 0.00 | 69 | 1011.4 |
| 20260904194202 | 33 | 307 | 1.6 | 8.0 | 0.00 | 0.00 | 0.00 | 70 | 1011.5 |
| 20260904194103 | 33 | 306 | 3.2 | 8.0 | 0.00 | 0.00 | 0.00 | 69 | 1011.5 |
| 20260904194002 | 33 | 306 | 6.4 | 8.0 | 0.00 | 0.00 | 0.00 | 71 | 1011.5 |
| 20260904193903 | 33 | 309 | 4.8 | 6.4 | 0.00 | 0.00 | 0.00 | 70 | 1011.6 |
| 20260904193802 | 33 | 312 | 4.8 | 8.0 | 0.00 | 0.00 | 0.00 | 72 | 1011.5 |
| 20260904193702 | 33 | 340 | 3.2 | 9.7 | 0.00 | 0.00 | 0.00 | 72 | 1011.6 |
| 20260904193603 | 32 | 345 | 1.6 | 9.7 | 0.00 | 0.00 | 0.00 | 72 | 1011.5 |
| 20260904193503 | 32 | 345 | 3.2 | 9.7 | 0.00 | 0.00 | 0.00 | 73 | 1011.5 |
| 20260904193404 | 32 | 345 | 3.2 | 9.7 | 0.00 | 0.00 | 0.00 | 73 | 1011.5 |
| 20260904193302 | 32 | 300 | 3.2 | 9.7 | 0.00 | 0.00 | 0.00 | 74 | 1011.5 |
| 20260904193203 | 32 | 312 | 3.2 | 9.7 | 0.00 | 0.00 | 0.00 | 73 | 1011.5 |
| 20260904193102 | 32 | 312 | 4.8 | 11.3 | 0.00 | 0.00 | 0.00 | 74 | 1011.5 |
| 20260904193003 | 32 | 312 | 4.8 | 11.3 | 0.00 | 0.00 | 0.00 | 74 | 1011.4 |
| 20260904192903 | 32 | 279 | 6.4 | 11.3 | 0.00 | 0.00 | 0.00 | 75 | 1011.5 |
| 20260904192802 | 32 | 248 | 6.4 | 11.3 | 0.00 | 0.00 | 0.00 | 75 | 1011.6 |
| 20260904192702 | 31 | 264 | 6.4 | 11.3 | 0.00 | 0.00 | 0.00 | 76 | 1011.6 |
| 20260904192603 | 31 | 264 | 6.4 | 11.3 | 0.00 | 0.00 | 0.00 | 76 | 1011.7 |
| 20260904192502 | 31 | 264 | 6.4 | 11.3 | 0.00 | 0.00 | 0.00 | 76 | 1011.7 |
| 20260904192402 | 31 | 264 | 6.4 | 11.3 | 0.00 | 0.00 | 0.00 | 76 | 1011.6 |
| 20260904192306 | 31 | 264 | 6.4 | 11.3 | 0.00 | 0.00 | 0.00 | 76 | 1011.7 |
| 20260904192203 | 31 | 258 | 6.4 | 11.3 | 0.00 | 0.00 | 0.00 | 77 | 1011.7 |
| 20260904192103 | 31 | 219 | 6.4 | 11.3 | 0.00 | 0.00 | 0.00 | 77 | 1011.7 |
| 20260904192003 | 31 | 241 | 8.0 | 11.3 | 0.00 | 0.00 | 0.00 | 76 | 1011.7 |
| 20260904191903 | 31 | 278 | 6.4 | 11.3 | 0.00 | 0.00 | 0.00 | 76 | 1011.7 |
| 20260904191804 | 31 | 268 | 6.4 | 11.3 | 0.00 | 0.00 | 0.00 | 76 | 1011.8 |
| 20260904191704 | 31 | 285 | 6.4 | 11.3 | 0.00 | 0.00 | 0.00 | 77 | 1011.8 |
| 20260904191602 | 31 | 266 | 4.8 | 16.1 | 0.00 | 0.00 | 0.00 | 76 | 1011.8 |
| 20260904191504 | 31 | 295 | 4.8 | 16.1 | 0.00 | 0.00 | 0.00 | 76 | 1011.8 |
| 20260904191402 | 31 | 274 | 4.8 | 16.1 | 0.00 | 0.00 | 0.00 | 76 | 1011.8 |
| 20260904191302 | 31 | 295 | 6.4 | 16.1 | 0.00 | 0.00 | 0.00 | 77 | 1011.8 |
| 20260904191203 | 31 | 259 | 8.0 | 16.1 | 0.00 | 0.00 | 0.00 | 78 | 1011.8 |
| 20260904191103 | 30 | 309 | 8.0 | 16.1 | 0.00 | 0.00 | 0.00 | 79 | 1012.0 |
| 20260904191003 | 30 | 329 | 8.0 | 16.1 | 0.00 | 0.00 | 0.00 | 78 | 1011.9 |
| 20260904190902 | 30 | 313 | 8.0 | 16.1 | 0.00 | 0.00 | 0.00 | 78 | 1012.0 |
| 20260904190803 | 30 | 317 | 9.7 | 16.1 | 0.00 | 0.00 | 0.00 | 79 | 1012.0 |
| 20260904190703 | 30 | 300 | 9.7 | 16.1 | 0.00 | 0.00 | 0.00 | 79 | 1011.9 |
| 20260904190603 | 30 | 316 | 8.0 | 14.5 | 0.00 | 0.00 | 0.00 | 79 | 1012.0 |
| 20260904190504 | 30 | 283 | 8.0 | 11.3 | 0.00 | 0.00 | 0.00 | 80 | 1012.0 |
| 20260904190402 | 30 | 288 | 8.0 | 11.3 | 0.00 | 0.00 | 0.00 | 81 | 1012.1 |
| 20260904190301 | 30 | 288 | 8.0 | 11.3 | 0.00 | 0.00 | 0.00 | 80 | 1012.1 |
| 20260904190200 | 29 | 293 | 8.0 | 9.7 | 0.00 | 0.00 | 0.00 | 81 | 1012.1 |
| 20260904190101 | 29 | 298 | 6.4 | 14.5 | 0.00 | 0.00 | 0.00 | 82 | 1012.2 |
| 20260904185958 | 29 | 279 | 4.8 | 14.5 | 0.00 | 0.00 | 0.00 | 82 | 1012.2 |
| 20260904185859 | 29 | 298 | 6.4 | 14.5 | 0.00 | 0.00 | 0.00 | 82 | 1012.3 |
| 20260904185759 | 29 | 298 | 8.0 | 14.5 | 0.00 | 0.00 | 0.00 | 82 | 1012.3 |
| 20260904185659 | 29 | 300 | 8.0 | 14.5 | 0.00 | 0.00 | 0.00 | 83 | 1012.3 |
| 20260904185559 | 29 | 300 | 8.0 | 14.5 | 0.00 | 0.00 | 0.00 | 83 | 1012.3 |
| 20260904185459 | 29 | 0 | 6.4 | 14.5 | 0.00 | 0.00 | 0.00 | 83 | 1012.3 |
| 20260904185359 | 29 | 0 | 6.4 | 14.5 | 0.00 | 0.00 | 0.00 | 84 | 1012.2 |
| 20260904185258 | 29 | 0 | 6.4 | 14.5 | 0.00 | 0.00 | 0.00 | 83 | 1012.2 |
| 20260904185200 | 28 | 0 | 8.0 | 14.5 | 0.00 | 0.00 | 0.00 | 85 | 1012.3 |
| 20260904185058 | 28 | 0 | 6.4 | 14.5 | 0.00 | 0.00 | 0.00 | 85 | 1012.3 |
| 20260904184958 | 28 | 0 | 8.0 | 14.5 | 0.00 | 0.00 | 0.00 | 83 | 1012.4 |
| 20260904184857 | 28 | 155 | 9.7 | 14.5 | 0.00 | 0.00 | 0.00 | 81 | 1012.4 |
| 20260904184759 | 28 | 295 | 9.7 | 14.5 | 0.00 | 0.00 | 0.00 | 80 | 1012.5 |
| 20260904184657 | 28 | 302 | 9.7 | 14.5 | 0.00 | 0.00 | 0.00 | 80 | 1012.5 |
| 20260904184557 | 29 | 299 | 8.0 | 14.5 | 0.00 | 0.00 | 0.00 | 80 | 1012.5 |
| 20260904184458 | 29 | 281 | 8.0 | 14.5 | 0.00 | 0.00 | 0.00 | 79 | 1012.5 |
| 20260904184357 | 29 | 298 | 8.0 | 14.5 | 0.00 | 0.00 | 0.00 | 79 | 1012.5 |
| 20260904184257 | 29 | 289 | 9.7 | 14.5 | 0.00 | 0.00 | 0.00 | 78 | 1012.6 |
| 20260904184157 | 29 | 298 | 9.7 | 14.5 | 0.00 | 0.00 | 0.00 | 78 | 1012.6 |
| 20260904184059 | 29 | 295 | 8.0 | 14.5 | 0.00 | 0.00 | 0.00 | 78 | 1012.5 |
| 20260904183958 | 29 | 307 | 9.7 | 14.5 | 0.00 | 0.00 | 0.00 | 78 | 1012.5 |
| 20260904183857 | 29 | 300 | 9.7 | 14.5 | 0.00 | 0.00 | 0.00 | 77 | 1012.6 |
| 20260904183759 | 29 | 292 | 9.7 | 14.5 | 0.00 | 0.00 | 0.00 | 77 | 1012.5 |
| 20260904183658 | 29 | 293 | 8.0 | 14.5 | 0.00 | 0.00 | 0.00 | 76 | 1012.6 |
| 20260904183558 | 29 | 305 | 6.4 | 11.3 | 0.00 | 0.00 | 0.00 | 77 | 1012.5 |
| 20260904183459 | 29 | 302 | 6.4 | 14.5 | 0.00 | 0.00 | 0.00 | 76 | 1012.6 |
| 20260904183357 | 29 | 310 | 6.4 | 14.5 | 0.00 | 0.00 | 0.00 | 76 | 1012.6 |
| 20260904183257 | 29 | 312 | 6.4 | 14.5 | 0.00 | 0.00 | 0.00 | 76 | 1012.6 |
| 20260904183157 | 29 | 293 | 6.4 | 14.5 | 0.00 | 0.00 | 0.00 | 76 | 1012.6 |
| 20260904183059 | 29 | 293 | 8.0 | 16.1 | 0.00 | 0.00 | 0.00 | 76 | 1012.5 |
| 20260904182957 | 29 | 317 | 6.4 | 16.1 | 0.00 | 0.00 | 0.00 | 76 | 1012.6 |
| 20260904182859 | 29 | 326 | 8.0 | 16.1 | 0.00 | 0.00 | 0.00 | 76 | 1012.7 |
| 20260904182759 | 29 | 313 | 8.0 | 17.7 | 0.00 | 0.00 | 0.00 | 76 | 1012.7 |
| 20260904182658 | 29 | 313 | 8.0 | 17.7 | 0.00 | 0.00 | 0.00 | 76 | 1012.7 |
| 20260904182557 | 29 | 286 | 8.0 | 17.7 | 0.00 | 0.00 | 0.00 | 76 | 1012.7 |
| 20260904182457 | 29 | 262 | 8.0 | 17.7 | 0.00 | 0.00 | 0.00 | 76 | 1012.8 |
| 20260904182359 | 30 | 314 | 8.0 | 17.7 | 0.00 | 0.00 | 0.00 | 76 | 1012.8 |
| 20260904182256 | 30 | 286 | 9.7 | 17.7 | 0.00 | 0.00 | 0.00 | 75 | 1012.9 |
| 20260904182157 | 30 | 309 | 11.3 | 17.7 | 0.00 | 0.00 | 0.00 | 75 | 1012.9 |
| 20260904182058 | 30 | 289 | 9.7 | 17.7 | 0.00 | 0.00 | 0.00 | 75 | 1012.9 |
| 20260904181957 | 30 | 309 | 11.3 | 17.7 | 0.00 | 0.00 | 0.00 | 74 | 1013.0 |
| 20260904181857 | 30 | 324 | 11.3 | 24.1 | 0.00 | 0.00 | 0.00 | 74 | 1013.0 |
| 20260904181757 | 30 | 275 | 9.7 | 24.1 | 0.00 | 0.00 | 0.00 | 74 | 1013.1 |
| 20260904181658 | 30 | 292 | 8.0 | 24.1 | 0.00 | 0.00 | 0.00 | 75 | 1013.1 |
| 20260904181600 | 30 | 259 | 8.0 | 24.1 | 0.00 | 0.00 | 0.00 | 75 | 1013.1 |
| 20260904181456 | 30 | 276 | 8.0 | 24.1 | 0.00 | 0.00 | 0.00 | 74 | 1013.1 |
| 20260904181358 | 30 | 268 | 9.7 | 24.1 | 0.00 | 0.00 | 0.00 | 73 | 1013.1 |
| 20260904181257 | 30 | 243 | 9.7 | 24.1 | 0.00 | 0.00 | 0.00 | 73 | 1013.1 |
| 20260904181158 | 31 | 285 | 12.9 | 24.1 | 0.00 | 0.00 | 0.00 | 71 | 1013.2 |
| 20260904181058 | 31 | 219 | 16.1 | 24.1 | 0.00 | 0.00 | 0.00 | 68 | 1013.1 |
| 20260904180958 | 32 | 241 | 16.1 | 24.1 | 0.00 | 0.00 | 0.00 | 68 | 1013.1 |
| 20260904180857 | 33 | 243 | 9.7 | 20.9 | 0.00 | 0.00 | 0.00 | 67 | 1013.1 |
| 20260904180756 | 33 | 247 | 4.8 | 9.7 | 0.00 | 0.00 | 0.00 | 68 | 1013.1 |
| 20260904180658 | 33 | 3 | 3.2 | 9.7 | 0.00 | 0.00 | 0.00 | 68 | 1013.1 |
| 20260904180558 | 33 | 18 | 4.8 | 9.7 | 0.00 | 0.00 | 0.00 | 68 | 1013.1 |
| 20260904180456 | 33 | 18 | 6.4 | 9.7 | 0.00 | 0.00 | 0.00 | 67 | 1013.0 |
| 20260904180357 | 33 | 89 | 6.4 | 9.7 | 0.00 | 0.00 | 0.00 | 67 | 1013.0 |
| 20260904180257 | 33 | 73 | 3.2 | 9.7 | 0.00 | 0.00 | 0.00 | 68 | 1013.0 |
| 20260904180156 | 33 | 71 | 1.6 | 9.7 | 0.00 | 0.00 | 0.00 | 68 | 1012.9 |
| 20260904180056 | 33 | 87 | 3.2 | 11.3 | 0.00 | 0.00 | 0.00 | 67 | 1013.0 |
| 20260904175958 | 33 | 87 | 6.4 | 14.5 | 0.00 | 0.00 | 0.00 | 68 | 1013.0 |
| 20260904175856 | 33 | 145 | 6.4 | 14.5 | 0.00 | 0.00 | 0.00 | 68 | 1013.0 |
| 20260904175757 | 33 | 85 | 4.8 | 16.1 | 0.00 | 0.00 | 0.00 | 69 | 1013.1 |
| 20260904175657 | 32 | 134 | 1.6 | 16.1 | 0.00 | 0.00 | 0.00 | 71 | 1013.0 |
| 20260904175557 | 32 | 89 | 0.0 | 16.1 | 0.00 | 0.00 | 0.00 | 71 | 1013.0 |
| 20260904175457 | 32 | 89 | 3.2 | 16.1 | 0.00 | 0.00 | 0.00 | 72 | 1013.0 |
| 20260904175357 | 32 | 87 | 8.0 | 16.1 | 0.00 | 0.00 | 0.00 | 71 | 1013.0 |
| 20260904175258 | 32 | 124 | 9.7 | 16.1 | 0.00 | 0.00 | 0.00 | 72 | 1013.0 |
| 20260904175157 | 33 | 152 | 9.7 | 16.1 | 0.00 | 0.00 | 0.00 | 72 | 1013.0 |
| 20260904175056 | 33 | 75 | 9.7 | 16.1 | 0.00 | 0.00 | 0.00 | 72 | 1012.9 |
| 20260904174957 | 33 | 73 | 11.3 | 16.1 | 0.00 | 0.00 | 0.00 | 72 | 1012.9 |
| 20260904174852 | 33 | 56 | 11.3 | 16.1 | 0.00 | 0.00 | 0.00 | 72 | 1012.8 |
| 20260904174749 | 33 | 63 | 9.7 | 16.1 | 0.00 | 0.00 | 0.00 | 73 | 1012.8 |
| 20260904174648 | 32 | 47 | 8.0 | 11.3 | 0.00 | 0.00 | 0.00 | 74 | 1012.8 |
| 20260904174548 | 32 | 85 | 8.0 | 11.3 | 0.00 | 0.00 | 0.00 | 74 | 1012.9 |
| 20260904174444 | 32 | 109 | 8.0 | 11.3 | 0.00 | 0.00 | 0.00 | 74 | 1012.8 |
| 20260904174345 | 32 | 71 | 8.0 | 14.5 | 0.00 | 0.00 | 0.00 | 74 | 1012.8 |
| 20260904174243 | 32 | 92 | 6.4 | 14.5 | 0.00 | 0.00 | 0.00 | 74 | 1012.8 |
| 20260904174139 | 32 | 100 | 8.0 | 14.5 | 0.00 | 0.00 | 0.00 | 75 | 1012.9 |
| 20260904174035 | 32 | 100 | 8.0 | 19.3 | 0.00 | 0.00 | 0.00 | 75 | 1012.8 |
| 20260904173934 | 32 | 66 | 6.4 | 19.3 | 0.00 | 0.00 | 0.00 | 76 | 1012.8 |
| 20260904173833 | 32 | 62 | 6.4 | 19.3 | 0.00 | 0.00 | 0.00 | 77 | 1012.8 |
| 20260904173732 | 31 | 14 | 6.4 | 19.3 | 0.00 | 0.00 | 0.00 | 77 | 1012.8 |
| 20260904173631 | 31 | 49 | 8.0 | 19.3 | 0.00 | 0.00 | 0.00 | 77 | 1012.8 |
| 20260904173533 | 31 | 99 | 9.7 | 19.3 | 0.00 | 0.00 | 0.00 | 77 | 1012.9 |
| 20260904173431 | 31 | 94 | 9.7 | 19.3 | 0.00 | 0.00 | 0.00 | 78 | 1012.9 |
| 20260904173331 | 31 | 66 | 9.7 | 19.3 | 0.00 | 0.00 | 0.00 | 78 | 1012.9 |
| 20260904173233 | 31 | 82 | 11.3 | 19.3 | 0.00 | 0.00 | 0.00 | 78 | 1013.0 |
| 20260904173131 | 31 | 97 | 12.9 | 19.3 | 0.00 | 0.00 | 0.00 | 79 | 1012.9 |
| 20260904173031 | 31 | 66 | 11.3 | 16.1 | 0.00 | 0.00 | 0.00 | 80 | 1012.9 |
| 20260904172930 | 31 | 86 | 9.7 | 16.1 | 0.00 | 0.00 | 0.00 | 80 | 1012.9 |
| 20260904172833 | 31 | 96 | 9.7 | 16.1 | 0.00 | 0.00 | 0.00 | 81 | 1012.9 |
| 20260904172733 | 30 | 133 | 8.0 | 16.1 | 0.00 | 0.00 | 0.00 | 81 | 1012.9 |
| 20260904172631 | 30 | 90 | 8.0 | 16.1 | 0.00 | 0.00 | 0.00 | 82 | 1012.9 |
| 20260904172532 | 30 | 116 | 8.0 | 16.1 | 0.00 | 0.00 | 0.00 | 82 | 1012.9 |
| 20260904172431 | 30 | 75 | 8.0 | 16.1 | 0.00 | 0.00 | 0.00 | 82 | 1012.9 |
| 20260904172330 | 30 | 103 | 11.3 | 16.1 | 0.00 | 0.00 | 0.00 | 81 | 1013.0 |
| 20260904172232 | 30 | 118 | 12.9 | 16.1 | 0.00 | 0.00 | 0.00 | 81 | 1013.0 |
| 20260904172131 | 30 | 118 | 11.3 | 16.1 | 0.00 | 0.00 | 0.00 | 81 | 1013.1 |
| 20260904172031 | 30 | 117 | 9.7 | 14.5 | 0.00 | 0.00 | 0.00 | 81 | 1013.1 |
| 20260904171932 | 30 | 93 | 9.7 | 11.3 | 0.00 | 0.00 | 0.00 | 81 | 1013.2 |
| 20260904171833 | 30 | 104 | 8.0 | 11.3 | 0.00 | 0.00 | 0.00 | 81 | 1013.3 |
| 20260904171732 | 30 | 113 | 8.0 | 11.3 | 0.00 | 0.00 | 0.00 | 81 | 1013.3 |
| 20260904171631 | 30 | 109 | 8.0 | 11.3 | 0.00 | 0.00 | 0.00 | 81 | 1013.3 |
| 20260904171532 | 30 | 107 | 6.4 | 11.3 | 0.00 | 0.00 | 0.00 | 82 | 1013.3 |
| 20260904171432 | 30 | 114 | 6.4 | 11.3 | 0.00 | 0.00 | 0.00 | 82 | 1013.3 |
| 20260904171333 | 30 | 99 | 6.4 | 11.3 | 0.00 | 0.00 | 0.00 | 82 | 1013.3 |
| 20260904171231 | 30 | 145 | 6.4 | 11.3 | 0.00 | 0.00 | 0.00 | 82 | 1013.3 |
| 20260904171132 | 30 | 109 | 6.4 | 11.3 | 0.00 | 0.00 | 0.00 | 82 | 1013.3 |
| 20260904171031 | 30 | 82 | 6.4 | 11.3 | 0.00 | 0.00 | 0.00 | 81 | 1013.3 |
| 20260904170931 | 30 | 76 | 8.0 | 11.3 | 0.00 | 0.00 | 0.00 | 80 | 1013.3 |
| 20260904170833 | 30 | 85 | 8.0 | 11.3 | 0.00 | 0.00 | 0.00 | 81 | 1013.3 |
| 20260904170732 | 30 | 61 | 8.0 | 14.5 | 0.00 | 0.00 | 0.00 | 81 | 1013.3 |
| 20260904170632 | 30 | 75 | 9.7 | 14.5 | 0.00 | 0.00 | 0.00 | 82 | 1013.3 |
| 20260904170531 | 30 | 102 | 6.4 | 14.5 | 0.00 | 0.00 | 0.00 | 82 | 1013.2 |
| 20260904170432 | 30 | 100 | 4.8 | 14.5 | 0.00 | 0.00 | 0.00 | 82 | 1013.2 |
| 20260904170331 | 30 | 102 | 6.4 | 14.5 | 0.00 | 0.00 | 0.00 | 82 | 1013.2 |
| 20260904170231 | 30 | 86 | 6.4 | 14.5 | 0.00 | 0.00 | 0.00 | 82 | 1013.1 |
| 20260904170130 | 30 | 113 | 6.4 | 14.5 | 0.00 | 0.00 | 0.00 | 82 | 1013.1 |
| 20260904170032 | 30 | 82 | 6.4 | 14.5 | 0.00 | 0.00 | 0.00 | 82 | 1013.1 |
| 20260904165932 | 30 | 106 | 6.4 | 14.5 | 0.00 | 0.00 | 0.00 | 82 | 1013.2 |
| 20260904165833 | 30 | 110 | 8.0 | 14.5 | 0.00 | 0.00 | 0.00 | 81 | 1013.1 |
| 20260904165732 | 30 | 110 | 8.0 | 14.5 | 0.00 | 0.00 | 0.00 | 82 | 1013.1 |
| 20260904165632 | 30 | 113 | 9.7 | 14.5 | 0.00 | 0.00 | 0.00 | 82 | 1013.0 |
| 20260904165531 | 30 | 140 | 9.7 | 14.5 | 0.00 | 0.00 | 0.00 | 82 | 1013.1 |
| 20260904165433 | 30 | 121 | 8.0 | 16.1 | 0.00 | 0.00 | 0.00 | 83 | 1013.1 |
| 20260904165331 | 30 | 117 | 8.0 | 16.1 | 0.00 | 0.00 | 0.00 | 83 | 1013.1 |
| 20260904165231 | 30 | 90 | 8.0 | 16.1 | 0.00 | 0.00 | 0.00 | 83 | 1013.0 |
| 20260904165133 | 30 | 124 | 8.0 | 16.1 | 0.00 | 0.00 | 0.00 | 83 | 1013.0 |
| 20260904165032 | 30 | 94 | 6.4 | 16.1 | 0.00 | 0.00 | 0.00 | 84 | 1013.0 |
| 20260904164931 | 30 | 152 | 8.0 | 16.1 | 0.00 | 0.00 | 0.00 | 84 | 1013.0 |
| 20260904164831 | 30 | 158 | 8.0 | 16.1 | 0.00 | 0.00 | 0.00 | 84 | 1013.0 |
| 20260904164732 | 30 | 113 | 8.0 | 16.1 | 0.00 | 0.00 | 0.00 | 84 | 1013.0 |
| 20260904164632 | 30 | 104 | 8.0 | 16.1 | 0.00 | 0.00 | 0.00 | 84 | 1013.1 |
| 20260904164531 | 30 | 120 | 8.0 | 16.1 | 0.00 | 0.00 | 0.00 | 85 | 1013.1 |
| 20260904164432 | 30 | 86 | 8.0 | 14.5 | 0.00 | 0.00 | 0.00 | 85 | 1013.1 |
| 20260904164331 | 30 | 110 | 8.0 | 14.5 | 0.00 | 0.00 | 0.00 | 85 | 1013.1 |
| 20260904164231 | 30 | 79 | 8.0 | 14.5 | 0.00 | 0.00 | 0.00 | 85 | 1013.2 |
| 20260904164132 | 30 | 142 | 9.7 | 14.5 | 0.00 | 0.00 | 0.00 | 85 | 1013.2 |
| 20260904164032 | 30 | 110 | 9.7 | 14.5 | 0.00 | 0.00 | 0.00 | 85 | 1013.2 |
| 20260904163931 | 30 | 117 | 8.0 | 16.1 | 0.00 | 0.00 | 0.00 | 85 | 1013.1 |
| 20260904163831 | 30 | 128 | 8.0 | 16.1 | 0.00 | 0.00 | 0.00 | 84 | 1013.0 |
| 20260904163733 | 30 | 104 | 8.0 | 16.1 | 0.00 | 0.00 | 0.00 | 84 | 1013.1 |
| 20260904163631 | 30 | 102 | 9.7 | 16.1 | 0.00 | 0.00 | 0.00 | 84 | 1013.1 |
| 20260904163531 | 30 | 106 | 9.7 | 16.1 | 0.00 | 0.00 | 0.00 | 83 | 1013.1 |
| 20260904163433 | 30 | 104 | 9.7 | 16.1 | 0.00 | 0.00 | 0.00 | 84 | 1013.1 |
| 20260904163333 | 30 | 110 | 9.7 | 16.1 | 0.00 | 0.00 | 0.00 | 83 | 1013.0 |
| 20260904163231 | 30 | 154 | 9.7 | 16.1 | 0.00 | 0.00 | 0.00 | 83 | 1013.1 |
| 20260904163131 | 30 | 113 | 11.3 | 16.1 | 0.00 | 0.00 | 0.00 | 83 | 1013.0 |
| 20260904163032 | 30 | 89 | 9.7 | 16.1 | 0.00 | 0.00 | 0.00 | 83 | 1013.0 |
| 20260904162931 | 30 | 118 | 6.4 | 16.1 | 0.00 | 0.00 | 0.00 | 84 | 1012.9 |
| 20260904162831 | 30 | 147 | 6.4 | 16.1 | 0.00 | 0.00 | 0.00 | 84 | 1013.0 |
| 20260904162733 | 30 | 166 | 8.0 | 16.1 | 0.00 | 0.00 | 0.00 | 84 | 1013.0 |
| 20260904162632 | 30 | 97 | 8.0 | 16.1 | 0.00 | 0.00 | 0.00 | 84 | 1013.0 |
| 20260904162531 | 30 | 102 | 9.7 | 16.1 | 0.00 | 0.00 | 0.00 | 84 | 1013.0 |
| 20260904162431 | 30 | 116 | 9.7 | 16.1 | 0.00 | 0.00 | 0.00 | 84 | 1013.1 |
| 20260904162331 | 30 | 124 | 9.7 | 16.1 | 0.00 | 0.00 | 0.00 | 83 | 1013.1 |
| 20260904162232 | 30 | 103 | 11.3 | 16.1 | 0.00 | 0.00 | 0.00 | 84 | 1013.1 |
| 20260904162132 | 30 | 131 | 9.7 | 16.1 | 0.00 | 0.00 | 0.00 | 84 | 1013.1 |
| 20260904162032 | 30 | 116 | 8.0 | 16.1 | 0.00 | 0.00 | 0.00 | 84 | 1013.1 |
| 20260904161931 | 30 | 107 | 9.7 | 16.1 | 0.00 | 0.00 | 0.00 | 84 | 1013.1 |
| 20260904161832 | 30 | 93 | 9.7 | 16.1 | 0.00 | 0.00 | 0.00 | 84 | 1013.1 |
| 20260904161733 | 30 | 92 | 9.7 | 16.1 | 0.00 | 0.00 | 0.00 | 84 | 1013.1 |
| 20260904161632 | 30 | 96 | 9.7 | 16.1 | 0.00 | 0.00 | 0.00 | 84 | 1013.0 |
| 20260904161532 | 30 | 90 | 9.7 | 16.1 | 0.00 | 0.00 | 0.00 | 85 | 1013.0 |
| 20260904161431 | 30 | 96 | 8.0 | 16.1 | 0.00 | 0.00 | 0.00 | 85 | 1013.0 |
| 20260904161332 | 30 | 86 | 8.0 | 16.1 | 0.00 | 0.00 | 0.00 | 85 | 1013.1 |
| 20260904161231 | 30 | 107 | 6.4 | 16.1 | 0.00 | 0.00 | 0.00 | 85 | 1013.0 |
| 20260904161131 | 30 | 102 | 6.4 | 16.1 | 0.00 | 0.00 | 0.00 | 85 | 1013.1 |
| 20260904161032 | 30 | 107 | 6.4 | 16.1 | 0.00 | 0.00 | 0.00 | 85 | 1013.0 |
| 20260904160932 | 30 | 102 | 6.4 | 16.1 | 0.00 | 0.00 | 0.00 | 85 | 1013.0 |
| 20260904160832 | 30 | 110 | 8.0 | 16.1 | 0.00 | 0.00 | 0.00 | 85 | 1013.1 |
| 20260904160731 | 30 | 124 | 9.7 | 16.1 | 0.00 | 0.00 | 0.00 | 85 | 1013.0 |
| 20260904160633 | 30 | 114 | 9.7 | 16.1 | 0.00 | 0.00 | 0.00 | 85 | 1013.1 |
| 20260904160532 | 30 | 113 | 9.7 | 16.1 | 0.00 | 0.00 | 0.00 | 85 | 1013.1 |
| 20260904160431 | 30 | 96 | 8.0 | 14.5 | 0.00 | 0.00 | 0.00 | 85 | 1013.0 |
| 20260904160331 | 30 | 113 | 8.0 | 14.5 | 0.00 | 0.00 | 0.00 | 85 | 1013.1 |
| 20260904160231 | 30 | 96 | 6.4 | 14.5 | 0.00 | 0.00 | 0.00 | 85 | 1013.0 |
| 20260904160131 | 30 | 104 | 6.4 | 14.5 | 0.00 | 0.00 | 0.00 | 85 | 1013.0 |
| 20260904160032 | 30 | 109 | 8.0 | 14.5 | 0.00 | 0.00 | 0.00 | 85 | 1013.0 |
| 20260904155931 | 30 | 103 | 8.0 | 14.5 | 0.00 | 0.00 | 0.00 | 85 | 1013.1 |
| 20260904155831 | 30 | 104 | 6.4 | 14.5 | 0.00 | 0.00 | 0.00 | 85 | 1013.1 |
| 20260904155732 | 30 | 106 | 4.8 | 11.3 | 0.00 | 0.00 | 0.00 | 85 | 1013.0 |
| 20260904155633 | 30 | 99 | 6.4 | 11.3 | 0.00 | 0.00 | 0.00 | 85 | 1013.1 |
| 20260904155531 | 30 | 117 | 6.4 | 11.3 | 0.00 | 0.00 | 0.00 | 85 | 1013.1 |
| 20260904155431 | 30 | 125 | 4.8 | 11.3 | 0.00 | 0.00 | 0.00 | 85 | 1013.1 |
| 20260904155334 | 30 | 92 | 4.8 | 11.3 | 0.00 | 0.00 | 0.00 | 85 | 1013.0 |
| 20260904155232 | 30 | 106 | 4.8 | 11.3 | 0.00 | 0.00 | 0.00 | 85 | 1013.0 |
| 20260904155132 | 30 | 110 | 4.8 | 11.3 | 0.00 | 0.00 | 0.00 | 85 | 1013.1 |
| 20260904155032 | 30 | 103 | 6.4 | 11.3 | 0.00 | 0.00 | 0.00 | 85 | 1013.1 |
| 20260904154930 | 30 | 85 | 9.7 | 11.3 | 0.00 | 0.00 | 0.00 | 85 | 1013.1 |
| 20260904154831 | 30 | 93 | 9.7 | 11.3 | 0.00 | 0.00 | 0.00 | 85 | 1013.1 |
| 20260904154731 | 30 | 85 | 8.0 | 11.3 | 0.00 | 0.00 | 0.00 | 85 | 1013.2 |
| 20260904154632 | 30 | 138 | 6.4 | 11.3 | 0.00 | 0.00 | 0.00 | 85 | 1013.1 |
| 20260904154531 | 30 | 97 | 6.4 | 11.3 | 0.00 | 0.00 | 0.00 | 85 | 1013.2 |
| 20260904154432 | 30 | 89 | 6.4 | 11.3 | 0.00 | 0.00 | 0.00 | 85 | 1013.1 |
| 20260904154330 | 30 | 87 | 4.8 | 11.3 | 0.00 | 0.00 | 0.00 | 85 | 1013.1 |
| 20260904154231 | 30 | 97 | 3.2 | 11.3 | 0.00 | 0.00 | 0.00 | 85 | 1013.0 |
| 20260904154132 | 30 | 123 | 3.2 | 11.3 | 0.00 | 0.00 | 0.00 | 85 | 1013.0 |
| 20260904154034 | 30 | 137 | 6.4 | 11.3 | 0.00 | 0.00 | 0.00 | 85 | 1013.0 |
| 20260904153932 | 30 | 109 | 8.0 | 11.3 | 0.00 | 0.00 | 0.00 | 84 | 1013.0 |
| 20260904153832 | 30 | 89 | 8.0 | 11.3 | 0.00 | 0.00 | 0.00 | 85 | 1013.0 |
| 20260904153732 | 30 | 83 | 4.8 | 8.0 | 0.00 | 0.00 | 0.00 | 85 | 1012.9 |
| 20260904153633 | 30 | 96 | 3.2 | 8.0 | 0.00 | 0.00 | 0.00 | 85 | 1013.0 |
| 20260904153532 | 30 | 96 | 4.8 | 8.0 | 0.00 | 0.00 | 0.00 | 84 | 1013.0 |
| 20260904153432 | 30 | 96 | 6.4 | 8.0 | 0.00 | 0.00 | 0.00 | 84 | 1013.0 |
| 20260904153331 | 30 | 110 | 6.4 | 8.0 | 0.00 | 0.00 | 0.00 | 85 | 1012.9 |
| 20260904153232 | 30 | 100 | 6.4 | 8.0 | 0.00 | 0.00 | 0.00 | 85 | 1012.9 |
| 20260904153132 | 30 | 79 | 6.4 | 8.0 | 0.00 | 0.00 | 0.00 | 85 | 1012.9 |
| 20260904153031 | 30 | 73 | 6.4 | 8.0 | 0.00 | 0.00 | 0.00 | 85 | 1012.9 |
| 20260904152932 | 30 | 73 | 6.4 | 8.0 | 0.00 | 0.00 | 0.00 | 84 | 1012.8 |
| 20260904152832 | 30 | 76 | 6.4 | 8.0 | 0.00 | 0.00 | 0.00 | 84 | 1012.9 |
| 20260904152731 | 30 | 59 | 3.2 | 6.4 | 0.00 | 0.00 | 0.00 | 84 | 1012.8 |
| 20260904152631 | 30 | 58 | 1.6 | 6.4 | 0.00 | 0.00 | 0.00 | 85 | 1012.7 |
| 20260904152531 | 30 | 58 | 1.6 | 6.4 | 0.00 | 0.00 | 0.00 | 85 | 1012.7 |
| 20260904152431 | 30 | 58 | 3.2 | 6.4 | 0.00 | 0.00 | 0.00 | 84 | 1012.7 |
| 20260904152331 | 30 | 58 | 4.8 | 6.4 | 0.00 | 0.00 | 0.00 | 84 | 1012.7 |
| 20260904152232 | 30 | 59 | 3.2 | 8.0 | 0.00 | 0.00 | 0.00 | 84 | 1012.7 |
| 20260904152108 | 30 | 61 | 1.6 | 9.7 | 0.00 | 0.00 | 0.00 | 85 | 1012.6 |
| 20260904152009 | 30 | 118 | 0.0 | 9.7 | 0.00 | 0.00 | 0.00 | 84 | 1012.6 |
| 20260904151908 | 30 | 118 | 1.6 | 9.7 | 0.00 | 0.00 | 0.00 | 84 | 1012.6 |
| 20260904151806 | 30 | 118 | 3.2 | 11.3 | 0.00 | 0.00 | 0.00 | 84 | 1012.6 |
| 20260904151703 | 30 | 116 | 3.2 | 11.3 | 0.00 | 0.00 | 0.00 | 85 | 1012.7 |
| 20260904151603 | 30 | 94 | 3.2 | 11.3 | 0.00 | 0.00 | 0.00 | 85 | 1012.6 |
| 20260904151502 | 30 | 93 | 4.8 | 11.3 | 0.00 | 0.00 | 0.00 | 84 | 1012.7 |
| 20260904151402 | 30 | 94 | 8.0 | 11.3 | 0.00 | 0.00 | 0.00 | 84 | 1012.7 |
| 20260904151302 | 30 | 94 | 8.0 | 11.3 | 0.00 | 0.00 | 0.00 | 85 | 1012.7 |
| 20260904151202 | 30 | 87 | 8.0 | 11.3 | 0.00 | 0.00 | 0.00 | 85 | 1012.7 |
| 20260904151100 | 30 | 111 | 8.0 | 11.3 | 0.00 | 0.00 | 0.00 | 86 | 1012.7 |
| 20260904151000 | 30 | 56 | 8.0 | 11.3 | 0.00 | 0.00 | 0.00 | 85 | 1012.7 |
| 20260904150856 | 30 | 83 | 6.4 | 9.7 | 0.00 | 0.00 | 0.00 | 86 | 1012.8 |
| 20260904150752 | 30 | 86 | 6.4 | 9.7 | 0.00 | 0.00 | 0.00 | 86 | 1012.7 |
| 20260904150652 | 30 | 85 | 6.4 | 9.7 | 0.00 | 0.00 | 0.00 | 87 | 1012.8 |
| 20260904150554 | 30 | 71 | 4.8 | 9.7 | 0.00 | 0.00 | 0.00 | 87 | 1012.8 |
| 20260904150452 | 30 | 69 | 6.4 | 9.7 | 0.00 | 0.00 | 0.00 | 87 | 1012.8 |
| 20260904150352 | 29 | 76 | 8.0 | 9.7 | 0.00 | 0.00 | 0.00 | 87 | 1012.8 |
| 20260904150254 | 29 | 76 | 8.0 | 9.7 | 0.00 | 0.00 | 0.00 | 87 | 1012.7 |
| 20260904150153 | 29 | 66 | 6.4 | 9.7 | 0.00 | 0.00 | 0.00 | 87 | 1012.8 |
| 20260904150052 | 29 | 94 | 8.0 | 11.3 | 0.00 | 0.00 | 0.00 | 86 | 1012.7 |
| 20260904145952 | 29 | 76 | 6.4 | 11.3 | 0.00 | 0.00 | 0.00 | 86 | 1012.7 |
| 20260904145854 | 29 | 94 | 6.4 | 11.3 | 0.00 | 0.00 | 0.00 | 86 | 1012.7 |
| 20260904145752 | 29 | 103 | 6.4 | 11.3 | 0.00 | 0.00 | 0.00 | 86 | 1012.7 |
| 20260904145652 | 29 | 86 | 8.0 | 11.3 | 0.00 | 0.00 | 0.00 | 86 | 1012.8 |
| 20260904145554 | 29 | 83 | 8.0 | 11.3 | 0.00 | 0.00 | 0.00 | 86 | 1012.8 |
| 20260904145452 | 29 | 94 | 8.0 | 11.3 | 0.00 | 0.00 | 0.00 | 86 | 1012.7 |
| 20260904145353 | 29 | 90 | 8.0 | 11.3 | 0.00 | 0.00 | 0.00 | 85 | 1012.8 |
| 20260904145255 | 30 | 85 | 8.0 | 11.3 | 0.00 | 0.00 | 0.00 | 85 | 1012.7 |
| 20260904145152 | 30 | 93 | 9.7 | 11.3 | 0.00 | 0.00 | 0.00 | 85 | 1012.7 |
| 20260904145052 | 30 | 89 | 8.0 | 11.3 | 0.00 | 0.00 | 0.00 | 85 | 1012.7 |
| 20260904144953 | 30 | 80 | 8.0 | 11.3 | 0.00 | 0.00 | 0.00 | 85 | 1012.7 |
| 20260904144854 | 30 | 80 | 8.0 | 11.3 | 0.00 | 0.00 | 0.00 | 85 | 1012.6 |
| 20260904144753 | 30 | 89 | 8.0 | 11.3 | 0.00 | 0.00 | 0.00 | 84 | 1012.7 |
| 20260904144653 | 30 | 83 | 8.0 | 11.3 | 0.00 | 0.00 | 0.00 | 84 | 1012.7 |
| 20260904144555 | 30 | 55 | 6.4 | 11.3 | 0.00 | 0.00 | 0.00 | 84 | 1012.7 |
| 20260904144453 | 30 | 61 | 6.4 | 11.3 | 0.00 | 0.00 | 0.00 | 84 | 1012.6 |
| 20260904144352 | 30 | 73 | 6.4 | 11.3 | 0.00 | 0.00 | 0.00 | 84 | 1012.6 |
| 20260904144252 | 30 | 58 | 6.4 | 11.3 | 0.00 | 0.00 | 0.00 | 84 | 1012.6 |
| 20260904144153 | 30 | 51 | 6.4 | 11.3 | 0.00 | 0.00 | 0.00 | 84 | 1012.7 |
| 20260904144052 | 30 | 45 | 6.4 | 11.3 | 0.00 | 0.00 | 0.00 | 84 | 1012.6 |
| 20260904143953 | 30 | 24 | 3.2 | 9.7 | 0.00 | 0.00 | 0.00 | 84 | 1012.7 |
| 20260904143852 | 30 | 63 | 4.8 | 9.7 | 0.00 | 0.00 | 0.00 | 84 | 1012.7 |
| 20260904143752 | 30 | 102 | 6.4 | 9.7 | 0.00 | 0.00 | 0.00 | 84 | 1012.6 |
| 20260904143653 | 30 | 42 | 6.4 | 8.0 | 0.00 | 0.00 | 0.00 | 84 | 1012.6 |
| 20260904143552 | 30 | 79 | 6.4 | 8.0 | 0.00 | 0.00 | 0.00 | 84 | 1012.7 |
| 20260904143454 | 30 | 76 | 6.4 | 9.7 | 0.00 | 0.00 | 0.00 | 84 | 1012.7 |
| 20260904143353 | 30 | 7 | 6.4 | 9.7 | 0.00 | 0.00 | 0.00 | 84 | 1012.7 |
| 20260904143251 | 30 | 55 | 6.4 | 9.7 | 0.00 | 0.00 | 0.00 | 84 | 1012.6 |
| 20260904143153 | 30 | 39 | 6.4 | 9.7 | 0.00 | 0.00 | 0.00 | 84 | 1012.6 |
| 20260904143053 | 30 | 38 | 4.8 | 9.7 | 0.00 | 0.00 | 0.00 | 85 | 1012.6 |
| 20260904142953 | 30 | 8 | 3.2 | 9.7 | 0.00 | 0.00 | 0.00 | 85 | 1012.6 |
| 20260904142854 | 30 | 34 | 4.8 | 9.7 | 0.00 | 0.00 | 0.00 | 86 | 1012.6 |
| 20260904142751 | 30 | 34 | 6.4 | 9.7 | 0.00 | 0.00 | 0.00 | 86 | 1012.6 |
| 20260904142651 | 30 | 34 | 6.4 | 9.7 | 0.00 | 0.00 | 0.00 | 86 | 1012.6 |
| 20260904142550 | 30 | 32 | 4.8 | 9.7 | 0.00 | 0.00 | 0.00 | 86 | 1012.5 |
| 20260904142452 | 30 | 37 | 4.8 | 8.0 | 0.00 | 0.00 | 0.00 | 86 | 1012.5 |
| 20260904142352 | 30 | 90 | 4.8 | 9.7 | 0.00 | 0.00 | 0.00 | 86 | 1012.5 |
| 20260904142252 | 30 | 79 | 3.2 | 9.7 | 0.00 | 0.03 | 0.00 | 86 | 1012.5 |
| 20260904142152 | 29 | 79 | 4.8 | 9.7 | 0.00 | 0.03 | 0.00 | 86 | 1012.5 |
| 20260904142053 | 29 | 78 | 4.8 | 9.7 | 0.00 | 0.03 | 0.00 | 86 | 1012.4 |
| 20260904141951 | 29 | 78 | 4.8 | 9.7 | 0.00 | 0.03 | 0.00 | 87 | 1012.4 |
| 20260904141851 | 29 | 82 | 6.4 | 9.7 | 0.00 | 0.03 | 0.00 | 87 | 1012.5 |
| 20260904141752 | 29 | 97 | 6.4 | 9.7 | 0.00 | 0.05 | 0.00 | 87 | 1012.5 |
| 20260904141653 | 29 | 102 | 6.4 | 9.7 | 0.00 | 0.05 | 0.00 | 87 | 1012.5 |
| 20260904141549 | 29 | 76 | 6.4 | 9.7 | 0.00 | 0.05 | 0.00 | 88 | 1012.5 |
| 20260904141448 | 29 | 93 | 4.8 | 9.7 | 0.00 | 0.05 | 0.00 | 88 | 1012.5 |
| 20260904141346 | 29 | 68 | 3.2 | 8.0 | 0.00 | 0.05 | 0.00 | 88 | 1012.5 |
| 20260904141245 | 29 | 68 | 1.6 | 8.0 | 0.00 | 0.05 | 0.00 | 88 | 1012.6 |
| 20260904141144 | 29 | 66 | 1.6 | 8.0 | 0.00 | 0.05 | 0.00 | 89 | 1012.5 |
| 20260904141038 | 29 | 61 | 3.2 | 8.0 | 0.00 | 0.05 | 0.00 | 90 | 1012.4 |
| 20260904140938 | 28 | 61 | 4.8 | 8.0 | 0.00 | 0.05 | 0.00 | 89 | 1012.4 |
| 20260904140835 | 28 | 59 | 3.2 | 8.0 | 0.00 | 0.05 | 0.00 | 90 | 1012.5 |
| 20260904140734 | 28 | 49 | 4.8 | 8.0 | 0.00 | 0.05 | 0.00 | 90 | 1012.5 |
| 20260904140633 | 28 | 97 | 4.8 | 8.0 | 0.00 | 0.05 | 0.00 | 90 | 1012.4 |
| 20260904140530 | 28 | 109 | 6.4 | 8.0 | 0.00 | 0.05 | 0.00 | 90 | 1012.5 |
| 20260904140431 | 28 | 87 | 6.4 | 8.0 | 0.00 | 0.05 | 0.00 | 90 | 1012.4 |
| 20260904140331 | 28 | 82 | 6.4 | 8.0 | 0.00 | 0.05 | 0.00 | 90 | 1012.4 |
| 20260904140231 | 28 | 78 | 6.4 | 9.7 | 0.00 | 0.05 | 0.00 | 90 | 1012.4 |
| 20260904140133 | 28 | 58 | 6.4 | 9.7 | 0.00 | 0.05 | 0.00 | 90 | 1012.4 |
| 20260904140032 | 28 | 65 | 6.4 | 9.7 | 0.00 | 0.05 | 0.00 | 90 | 1012.4 |
| 20260904135932 | 28 | 63 | 6.4 | 9.7 | 0.00 | 0.05 | 0.00 | 91 | 1012.5 |
| 20260904135831 | 28 | 63 | 6.4 | 9.7 | 0.00 | 0.05 | 0.00 | 91 | 1012.4 |
| 20260904135732 | 28 | 62 | 6.4 | 9.7 | 0.00 | 0.05 | 0.00 | 91 | 1012.4 |
| 20260904135632 | 28 | 61 | 6.4 | 9.7 | 0.00 | 0.05 | 0.00 | 91 | 1012.5 |
| 20260904135531 | 28 | 28 | 4.8 | 9.7 | 0.00 | 0.05 | 0.00 | 91 | 1012.5 |
| 20260904135431 | 28 | 49 | 4.8 | 9.7 | 0.00 | 0.05 | 0.00 | 91 | 1012.5 |
| 20260904135333 | 28 | 55 | 4.8 | 9.7 | 0.00 | 0.05 | 0.00 | 91 | 1012.5 |
| 20260904135232 | 28 | 61 | 4.8 | 9.7 | 0.00 | 0.05 | 0.00 | 91 | 1012.5 |
| 20260904135133 | 28 | 65 | 6.4 | 9.7 | 0.00 | 0.05 | 0.00 | 91 | 1012.4 |
| 20260904135032 | 28 | 52 | 4.8 | 8.0 | 0.00 | 0.05 | 0.00 | 92 | 1012.4 |
| 20260904134931 | 28 | 42 | 3.2 | 6.4 | 0.00 | 0.05 | 0.00 | 92 | 1012.4 |
| 20260904134832 | 28 | 31 | 3.2 | 6.4 | 0.00 | 0.05 | 0.00 | 92 | 1012.3 |
| 20260904134731 | 28 | 16 | 1.6 | 8.0 | 0.00 | 0.05 | 0.00 | 92 | 1012.4 |
| 20260904134631 | 28 | 16 | 3.2 | 9.7 | 0.00 | 0.05 | 0.00 | 92 | 1012.4 |
| 20260904134531 | 28 | 16 | 3.2 | 9.7 | 0.00 | 0.05 | 0.00 | 92 | 1012.3 |
| 20260904134428 | 28 | 16 | 3.2 | 11.3 | 0.00 | 0.05 | 0.00 | 92 | 1012.3 |
| 20260904134327 | 28 | 16 | 4.8 | 11.3 | 0.00 | 0.05 | 0.00 | 93 | 1012.3 |
| 20260904134222 | 28 | 14 | 4.8 | 11.3 | 0.00 | 0.05 | 0.00 | 93 | 1012.3 |
| 20260904134122 | 28 | 13 | 3.2 | 11.3 | 0.00 | 0.05 | 0.00 | 93 | 1012.3 |
| 20260904134022 | 28 | 61 | 3.2 | 11.3 | 0.00 | 0.05 | 0.00 | 93 | 1012.4 |
| 20260904133921 | 28 | 61 | 4.8 | 11.3 | 0.00 | 0.05 | 0.00 | 93 | 1012.4 |
| 20260904133820 | 27 | 62 | 6.4 | 11.3 | 0.00 | 0.05 | 0.00 | 93 | 1012.3 |
| 20260904133718 | 27 | 61 | 6.4 | 11.3 | 0.00 | 0.05 | 0.00 | 93 | 1012.3 |
| 20260904133616 | 27 | 42 | 8.0 | 11.3 | 0.00 | 0.05 | 0.00 | 93 | 1012.3 |
| 20260904133516 | 27 | 51 | 8.0 | 11.3 | 0.00 | 0.05 | 0.00 | 93 | 1012.3 |
| 20260904133414 | 27 | 45 | 6.4 | 9.7 | 0.00 | 0.05 | 0.00 | 93 | 1012.3 |
| 20260904133313 | 27 | 41 | 6.4 | 9.7 | 0.00 | 0.05 | 0.00 | 93 | 1012.3 |
| 20260904133210 | 27 | 49 | 8.0 | 9.7 | 0.00 | 0.05 | 0.00 | 93 | 1012.3 |
| 20260904133110 | 27 | 41 | 6.4 | 8.0 | 0.00 | 0.05 | 0.00 | 93 | 1012.3 |
| 20260904133008 | 27 | 35 | 6.4 | 8.0 | 0.00 | 0.05 | 0.00 | 93 | 1012.3 |
| 20260904132906 | 27 | 21 | 6.4 | 8.0 | 0.00 | 0.05 | 0.00 | 93 | 1012.3 |
| 20260904132805 | 27 | 42 | 6.4 | 8.0 | 0.00 | 0.05 | 0.00 | 93 | 1012.3 |
| 20260904132704 | 27 | 42 | 6.4 | 8.0 | 0.00 | 0.05 | 0.00 | 93 | 1012.2 |
| 20260904132603 | 27 | 39 | 6.4 | 8.0 | 0.00 | 0.05 | 0.00 | 93 | 1012.3 |
| 20260904132503 | 27 | 51 | 6.4 | 8.0 | 0.00 | 0.05 | 0.00 | 93 | 1012.3 |
| 20260904132403 | 27 | 41 | 4.8 | 6.4 | 0.00 | 0.05 | 0.00 | 93 | 1012.2 |
| 20260904132306 | 27 | 39 | 4.8 | 6.4 | 0.00 | 0.05 | 0.00 | 93 | 1012.3 |
| 20260904132204 | 27 | 39 | 3.2 | 6.4 | 0.00 | 0.05 | 0.00 | 94 | 1012.3 |
| 20260904132103 | 27 | 39 | 3.2 | 6.4 | 0.00 | 0.05 | 0.00 | 94 | 1012.3 |
| 20260904132004 | 27 | 39 | 4.8 | 6.4 | 0.00 | 0.05 | 0.00 | 94 | 1012.3 |
| 20260904131902 | 27 | 39 | 3.2 | 6.4 | 0.00 | 0.05 | 0.00 | 94 | 1012.3 |
| 20260904131803 | 27 | 39 | 3.2 | 8.0 | 0.00 | 0.05 | 0.00 | 94 | 1012.2 |
| 20260904131703 | 27 | 39 | 3.2 | 8.0 | 0.00 | 0.05 | 0.00 | 94 | 1012.3 |
| 20260904131602 | 27 | 39 | 3.2 | 8.0 | 0.00 | 0.05 | 0.00 | 94 | 1012.3 |
| 20260904131503 | 27 | 39 | 3.2 | 8.0 | 0.00 | 0.05 | 0.00 | 94 | 1012.2 |
| 20260904131401 | 27 | 39 | 3.2 | 8.0 | 0.00 | 0.05 | 0.00 | 94 | 1012.2 |
| 20260904131303 | 27 | 39 | 4.8 | 8.0 | 0.00 | 0.05 | 0.00 | 94 | 1012.2 |
| 20260904131202 | 27 | 39 | 4.8 | 8.0 | 0.00 | 0.05 | 0.00 | 94 | 1012.2 |
| 20260904131102 | 27 | 39 | 6.4 | 8.0 | 0.00 | 0.05 | 0.00 | 94 | 1012.2 |
| 20260904131005 | 27 | 39 | 6.4 | 8.0 | 0.00 | 0.05 | 0.00 | 94 | 1012.2 |
| 20260904130903 | 27 | 39 | 3.2 | 8.0 | 0.00 | 0.05 | 0.00 | 94 | 1012.1 |
| 20260904130804 | 27 | 39 | 1.6 | 3.2 | 0.00 | 0.05 | 0.00 | 95 | 1012.1 |
| 20260904130702 | 27 | 39 | 1.6 | 3.2 | 0.00 | 0.05 | 0.00 | 95 | 1012.1 |
| 20260904130602 | 27 | 39 | 1.6 | 3.2 | 0.00 | 0.05 | 0.00 | 95 | 1012.1 |
| 20260904130504 | 27 | 39 | 1.6 | 3.2 | 0.00 | 0.05 | 0.00 | 95 | 1012.1 |
| 20260904130404 | 27 | 39 | 1.6 | 4.8 | 0.00 | 0.05 | 0.00 | 95 | 1012.1 |
| 20260904130303 | 27 | 39 | 1.6 | 6.4 | 0.00 | 0.05 | 0.00 | 95 | 1012.0 |
| 20260904130204 | 27 | 39 | 1.6 | 6.4 | 0.00 | 0.05 | 0.00 | 95 | 1012.0 |
| 20260904130004 | 27 | 39 | 0.0 | 6.4 | 0.00 | 0.05 | 0.00 | 95 | 1012.1 |
| 20260904125904 | 27 | 39 | 0.0 | 6.4 | 0.00 | 0.05 | 0.00 | 95 | 1012.1 |
| 20260904125803 | 27 | 39 | 0.0 | 6.4 | 0.00 | 0.05 | 0.00 | 95 | 1012.0 |
| 20260904125702 | 27 | 39 | 1.6 | 8.0 | 0.00 | 0.05 | 0.00 | 95 | 1012.1 |
| 20260904125603 | 27 | 25 | 3.2 | 8.0 | 0.00 | 0.05 | 0.00 | 95 | 1012.0 |
| 20260904125503 | 27 | 24 | 3.2 | 8.0 | 0.00 | 0.05 | 0.00 | 95 | 1012.1 |
| 20260904125401 | 27 | 24 | 4.8 | 8.0 | 0.00 | 0.05 | 0.00 | 95 | 1012.0 |
| 20260904125305 | 27 | 24 | 4.8 | 8.0 | 0.00 | 0.05 | 0.00 | 95 | 1012.1 |
| 20260904125204 | 27 | 25 | 4.8 | 8.0 | 0.00 | 0.05 | 0.00 | 95 | 1012.1 |
| 20260904125103 | 27 | 38 | 4.8 | 8.0 | 0.00 | 0.05 | 0.00 | 95 | 1012.0 |
| 20260904125003 | 27 | 38 | 4.8 | 8.0 | 0.00 | 0.05 | 0.00 | 95 | 1012.1 |
| 20260904124903 | 27 | 38 | 4.8 | 8.0 | 0.00 | 0.05 | 0.00 | 95 | 1012.0 |
| 20260904124802 | 27 | 37 | 6.4 | 8.0 | 0.00 | 0.05 | 0.00 | 95 | 1012.0 |
| 20260904124702 | 27 | 35 | 4.8 | 8.0 | 0.00 | 0.05 | 0.00 | 95 | 1012.0 |
| 20260904124603 | 27 | 32 | 4.8 | 6.4 | 0.00 | 0.05 | 0.00 | 95 | 1012.0 |
| 20260904124503 | 26 | 31 | 4.8 | 6.4 | 0.00 | 0.05 | 0.00 | 95 | 1012.0 |
| 20260904124403 | 26 | 31 | 4.8 | 6.4 | 0.00 | 0.05 | 0.00 | 95 | 1012.0 |
| 20260904124304 | 26 | 30 | 4.8 | 6.4 | 0.00 | 0.05 | 0.00 | 95 | 1012.0 |
| 20260904124202 | 26 | 51 | 4.8 | 6.4 | 0.00 | 0.05 | 0.00 | 95 | 1012.1 |
| 20260904124102 | 26 | 52 | 4.8 | 6.4 | 0.00 | 0.05 | 0.00 | 95 | 1012.0 |
| 20260904124003 | 26 | 52 | 6.4 | 6.4 | 0.00 | 0.05 | 0.00 | 95 | 1011.9 |
| 20260904123903 | 26 | 51 | 4.8 | 6.4 | 0.00 | 0.05 | 0.00 | 95 | 1011.9 |
| 20260904123801 | 26 | 52 | 4.8 | 6.4 | 0.00 | 0.05 | 0.00 | 95 | 1011.9 |
| 20260904123703 | 26 | 52 | 3.2 | 6.4 | 0.00 | 0.05 | 0.00 | 95 | 1011.8 |
| 20260904123604 | 26 | 54 | 4.8 | 6.4 | 0.00 | 0.05 | 0.00 | 95 | 1011.8 |
| 20260904123503 | 26 | 54 | 4.8 | 6.4 | 0.00 | 0.05 | 0.00 | 95 | 1011.8 |
| 20260904123402 | 26 | 54 | 4.8 | 6.4 | 0.00 | 0.05 | 0.00 | 95 | 1011.7 |
| 20260904123302 | 26 | 54 | 3.2 | 6.4 | 0.00 | 0.05 | 0.00 | 95 | 1011.7 |
| 20260904123204 | 26 | 66 | 3.2 | 4.8 | 0.00 | 0.05 | 0.00 | 95 | 1011.7 |
| 20260904123102 | 26 | 66 | 3.2 | 4.8 | 0.00 | 0.05 | 0.00 | 95 | 1011.6 |
| 20260904123004 | 26 | 68 | 3.2 | 4.8 | 0.00 | 0.05 | 0.00 | 95 | 1011.6 |
| 20260904122904 | 26 | 68 | 3.2 | 4.8 | 0.00 | 0.05 | 0.00 | 95 | 1011.6 |
| 20260904122804 | 26 | 68 | 3.2 | 4.8 | 0.00 | 0.05 | 0.00 | 95 | 1011.7 |
| 20260904122702 | 26 | 68 | 3.2 | 4.8 | 0.00 | 0.05 | 0.00 | 95 | 1011.6 |
| 20260904122603 | 26 | 68 | 3.2 | 4.8 | 0.00 | 0.05 | 0.00 | 95 | 1011.6 |
| 20260904122503 | 26 | 69 | 3.2 | 4.8 | 0.00 | 0.05 | 0.00 | 95 | 1011.5 |
| 20260904122403 | 26 | 69 | 3.2 | 3.2 | 0.00 | 0.05 | 0.00 | 95 | 1011.6 |
| 20260904122306 | 26 | 69 | 3.2 | 3.2 | 0.00 | 0.05 | 0.00 | 95 | 1011.5 |
| 20260904122203 | 26 | 69 | 1.6 | 3.2 | 0.00 | 0.05 | 0.00 | 95 | 1011.5 |
| 20260904122103 | 26 | 69 | 0.0 | 3.2 | 0.00 | 0.05 | 0.00 | 95 | 1011.5 |
| 20260904121959 | 26 | 69 | 0.0 | 4.8 | 0.00 | 0.05 | 0.00 | 95 | 1011.5 |
| 20260904121859 | 26 | 69 | 0.0 | 4.8 | 0.00 | 0.05 | 0.00 | 95 | 1011.4 |
| 20260904121758 | 26 | 69 | 0.0 | 4.8 | 0.00 | 0.05 | 0.00 | 95 | 1011.5 |
| 20260904121656 | 26 | 69 | 0.0 | 6.4 | 0.00 | 0.05 | 0.00 | 95 | 1011.5 |
| 20260904121554 | 26 | 69 | 0.0 | 6.4 | 0.00 | 0.05 | 0.00 | 95 | 1011.4 |
| 20260904121454 | 26 | 69 | 0.0 | 6.4 | 0.00 | 0.05 | 0.00 | 95 | 1011.4 |
| 20260904121351 | 26 | 69 | 0.0 | 6.4 | 0.00 | 0.05 | 0.00 | 95 | 1011.4 |
| 20260904121251 | 26 | 69 | 1.6 | 8.0 | 0.00 | 0.05 | 0.00 | 95 | 1011.3 |
| 20260904121148 | 26 | 69 | 3.2 | 8.0 | 0.00 | 0.05 | 0.00 | 95 | 1011.3 |
| 20260904121048 | 26 | 69 | 3.2 | 8.0 | 0.00 | 0.05 | 0.00 | 95 | 1011.3 |
| 20260904120948 | 26 | 69 | 3.2 | 8.0 | 0.00 | 0.05 | 0.00 | 95 | 1011.4 |
| 20260904120848 | 26 | 69 | 3.2 | 8.0 | 0.00 | 0.05 | 0.00 | 95 | 1011.4 |
| 20260904120749 | 26 | 69 | 3.2 | 8.0 | 0.00 | 0.05 | 0.00 | 95 | 1011.4 |
| 20260904120649 | 26 | 68 | 4.8 | 8.0 | 0.00 | 0.05 | 0.00 | 95 | 1011.3 |
| 20260904120549 | 26 | 68 | 4.8 | 8.0 | 0.00 | 0.05 | 0.00 | 95 | 1011.3 |
| 20260904120448 | 26 | 68 | 4.8 | 8.0 | 0.00 | 0.05 | 0.00 | 95 | 1011.3 |
| 20260904120348 | 26 | 66 | 4.8 | 8.0 | 0.00 | 0.05 | 0.00 | 95 | 1011.3 |
| 20260904120248 | 26 | 66 | 4.8 | 8.0 | 0.00 | 0.05 | 0.00 | 95 | 1011.4 |
| 20260904120148 | 26 | 65 | 4.8 | 8.0 | 0.00 | 0.05 | 0.00 | 95 | 1011.3 |
| 20260904120049 | 26 | 65 | 4.8 | 8.0 | 0.00 | 0.05 | 0.00 | 95 | 1011.4 |
| 20260904115948 | 26 | 63 | 4.8 | 8.0 | 0.00 | 0.05 | 0.00 | 95 | 1011.4 |
| 20260904115850 | 26 | 63 | 3.2 | 8.0 | 0.00 | 0.05 | 0.00 | 95 | 1011.4 |
| 20260904115749 | 26 | 58 | 0.0 | 0.0 | 0.00 | 0.08 | 0.00 | 95 | 1011.3 |
| 20260904115648 | 26 | 58 | 0.0 | 0.0 | 0.00 | 0.08 | 0.00 | 95 | 1011.3 |
| 20260904115549 | 26 | 58 | 0.0 | 0.0 | 0.00 | 0.08 | 0.00 | 95 | 1011.4 |
| 20260904115448 | 26 | 58 | 0.0 | 0.0 | 0.00 | 0.08 | 0.00 | 95 | 1011.3 |
| 20260904115348 | 26 | 58 | 0.0 | 0.0 | 0.00 | 0.08 | 0.00 | 95 | 1011.4 |
| 20260904115248 | 26 | 58 | 0.0 | 0.0 | 0.00 | 0.08 | 0.00 | 95 | 1011.3 |
| 20260904115149 | 26 | 58 | 0.0 | 0.0 | 0.00 | 0.08 | 0.00 | 95 | 1011.3 |
| 20260904115048 | 26 | 58 | 0.0 | 0.0 | 0.00 | 0.08 | 0.00 | 95 | 1011.3 |
| 20260904114948 | 26 | 58 | 0.0 | 0.0 | 0.00 | 0.08 | 0.00 | 95 | 1011.3 |
| 20260904114850 | 26 | 58 | 0.0 | 0.0 | 0.00 | 0.08 | 0.00 | 95 | 1011.2 |
| 20260904114749 | 26 | 58 | 0.0 | 0.0 | 0.00 | 0.08 | 0.00 | 95 | 1011.3 |
| 20260904114648 | 26 | 58 | 0.0 | 0.0 | 0.00 | 0.08 | 0.00 | 95 | 1011.3 |
| 20260904114548 | 26 | 58 | 0.0 | 0.0 | 0.00 | 0.08 | 0.00 | 95 | 1011.3 |
| 20260904114449 | 26 | 58 | 0.0 | 0.0 | 0.00 | 0.08 | 0.00 | 95 | 1011.3 |
| 20260904114349 | 26 | 58 | 0.0 | 0.0 | 0.00 | 0.08 | 0.00 | 95 | 1011.3 |
| 20260904114247 | 26 | 56 | 0.0 | 0.0 | 0.00 | 0.08 | 0.00 | 95 | 1011.2 |
| 20260904114149 | 26 | 58 | 0.0 | 0.0 | 0.00 | 0.08 | 0.00 | 95 | 1011.2 |
| 20260904114048 | 26 | 58 | 0.0 | 0.0 | 0.00 | 0.10 | 0.00 | 95 | 1011.2 |
| 20260904113949 | 26 | 58 | 0.0 | 0.0 | 0.00 | 0.10 | 0.00 | 95 | 1011.3 |
| 20260904113849 | 26 | 58 | 0.0 | 0.0 | 0.00 | 0.10 | 0.00 | 95 | 1011.2 |
| 20260904113748 | 26 | 58 | 0.0 | 0.0 | 0.00 | 0.10 | 0.00 | 95 | 1011.3 |
| 20260904113647 | 26 | 58 | 0.0 | 0.0 | 0.00 | 0.10 | 0.00 | 95 | 1011.3 |
| 20260904113548 | 26 | 58 | 0.0 | 0.0 | 0.00 | 0.10 | 0.00 | 95 | 1011.3 |
| 20260904113449 | 26 | 58 | 0.0 | 0.0 | 0.00 | 0.10 | 0.00 | 95 | 1011.3 |
| 20260904113348 | 26 | 58 | 0.0 | 0.0 | 0.00 | 0.10 | 0.00 | 95 | 1011.3 |
| 20260904113247 | 26 | 58 | 0.0 | 0.0 | 0.00 | 0.13 | 0.00 | 95 | 1011.4 |
| 20260904113149 | 26 | 58 | 0.0 | 0.0 | 0.00 | 0.13 | 0.00 | 95 | 1011.4 |
| 20260904113048 | 26 | 58 | 0.0 | 0.0 | 0.00 | 0.13 | 0.00 | 95 | 1011.4 |
| 20260904112947 | 26 | 58 | 0.0 | 0.0 | 0.00 | 0.15 | 0.00 | 95 | 1011.4 |
| 20260904112848 | 26 | 58 | 0.0 | 0.0 | 0.00 | 0.15 | 0.00 | 95 | 1011.3 |
| 20260904112749 | 26 | 58 | 0.0 | 0.0 | 0.00 | 0.15 | 0.00 | 95 | 1011.4 |
| 20260904112648 | 26 | 58 | 0.0 | 0.0 | 0.00 | 0.18 | 0.00 | 95 | 1011.3 |
| 20260904112547 | 26 | 58 | 0.0 | 0.0 | 0.00 | 0.18 | 0.00 | 95 | 1011.3 |
| 20260904112448 | 26 | 58 | 0.0 | 0.0 | 0.00 | 0.20 | 0.00 | 95 | 1011.3 |
| 20260904112333 | 26 | 58 | 0.0 | 0.0 | 0.00 | 0.23 | 0.00 | 95 | 1011.3 |
| 20260904112233 | 26 | 58 | 0.0 | 0.0 | 0.00 | 0.23 | 0.00 | 95 | 1011.3 |
| 20260904112130 | 26 | 58 | 0.0 | 0.0 | 0.00 | 0.25 | 0.00 | 95 | 1011.3 |
| 20260904112030 | 26 | 58 | 0.0 | 0.0 | 0.00 | 0.25 | 0.00 | 95 | 1011.2 |
| 20260904111933 | 26 | 58 | 0.0 | 0.0 | 0.00 | 0.28 | 0.00 | 95 | 1011.2 |
| 20260904111832 | 26 | 58 | 0.0 | 0.0 | 0.00 | 0.28 | 0.00 | 95 | 1011.2 |
| 20260904111731 | 26 | 58 | 0.0 | 0.0 | 0.00 | 0.30 | 0.00 | 95 | 1011.3 |
| 20260904111630 | 26 | 58 | 0.0 | 0.0 | 0.00 | 0.30 | 0.00 | 95 | 1011.3 |
| 20260904111527 | 26 | 58 | 0.0 | 0.0 | 0.00 | 0.30 | 0.00 | 95 | 1011.3 |
| 20260904111426 | 26 | 58 | 0.0 | 0.0 | 0.00 | 0.30 | 0.00 | 95 | 1011.2 |
| 20260904111325 | 26 | 58 | 0.0 | 0.0 | 0.00 | 0.33 | 0.00 | 95 | 1011.3 |
| 20260904111223 | 26 | 58 | 0.0 | 1.6 | 0.00 | 0.33 | 0.00 | 95 | 1011.2 |
| 20260904111122 | 26 | 58 | 0.0 | 4.8 | 0.00 | 0.33 | 0.00 | 95 | 1011.2 |
| 20260904111017 | 26 | 58 | 0.0 | 4.8 | 0.00 | 0.33 | 0.00 | 95 | 1011.3 |
| 20260904110917 | 26 | 58 | 0.0 | 4.8 | 0.00 | 0.33 | 0.00 | 95 | 1011.2 |
| 20260904110816 | 26 | 58 | 0.0 | 4.8 | 0.00 | 0.36 | 0.00 | 95 | 1011.3 |
| 20260904110713 | 26 | 58 | 0.0 | 4.8 | 0.00 | 0.36 | 0.00 | 95 | 1011.3 |
| 20260904110611 | 26 | 58 | 0.0 | 4.8 | 0.00 | 0.36 | 0.00 | 95 | 1011.3 |
| 20260904110510 | 26 | 58 | 0.0 | 4.8 | 0.00 | 0.36 | 0.00 | 95 | 1011.3 |
| 20260904110409 | 26 | 58 | 0.0 | 4.8 | 0.00 | 0.36 | 0.00 | 95 | 1011.3 |
| 20260904110306 | 26 | 58 | 1.6 | 4.8 | 0.00 | 0.36 | 0.00 | 95 | 1011.3 |
| 20260904110206 | 26 | 58 | 3.2 | 8.0 | 0.00 | 0.36 | 0.00 | 95 | 1011.3 |
| 20260904110104 | 26 | 58 | 1.6 | 8.0 | 0.00 | 0.36 | 0.00 | 95 | 1011.3 |
| 20260904110004 | 26 | 58 | 1.6 | 8.0 | 0.00 | 0.36 | 0.00 | 95 | 1011.3 |
| 20260904105903 | 26 | 58 | 3.2 | 8.0 | 0.00 | 0.36 | 0.00 | 95 | 1011.3 |
| 20260904105802 | 26 | 58 | 3.2 | 8.0 | 0.00 | 0.36 | 0.00 | 95 | 1011.3 |
| 20260904105704 | 26 | 58 | 3.2 | 8.0 | 0.00 | 0.36 | 0.00 | 95 | 1011.4 |
| 20260904105603 | 26 | 58 | 3.2 | 8.0 | 0.00 | 0.36 | 0.00 | 95 | 1011.3 |
| 20260904105504 | 26 | 58 | 3.2 | 8.0 | 0.00 | 0.36 | 0.00 | 95 | 1011.3 |
| 20260904105401 | 26 | 58 | 4.8 | 8.0 | 0.00 | 0.36 | 0.00 | 95 | 1011.2 |
| 20260904105305 | 26 | 58 | 6.4 | 8.0 | 0.00 | 0.36 | 0.00 | 95 | 1011.3 |
| 20260904105202 | 26 | 56 | 6.4 | 8.0 | 0.00 | 0.36 | 0.00 | 95 | 1011.3 |
| 20260904105104 | 26 | 82 | 4.8 | 8.0 | 0.00 | 0.36 | 0.00 | 95 | 1011.3 |
| 20260904105003 | 26 | 82 | 4.8 | 8.0 | 0.00 | 0.36 | 0.00 | 95 | 1011.4 |
| 20260904104904 | 26 | 82 | 4.8 | 8.0 | 0.00 | 0.36 | 0.00 | 95 | 1011.3 |
| 20260904104803 | 26 | 82 | 4.8 | 8.0 | 0.00 | 0.36 | 0.00 | 95 | 1011.3 |
| 20260904104702 | 26 | 68 | 4.8 | 8.0 | 0.00 | 0.36 | 0.00 | 95 | 1011.2 |
| 20260904104603 | 26 | 66 | 4.8 | 8.0 | 0.00 | 0.36 | 0.00 | 95 | 1011.2 |
| 20260904104502 | 26 | 66 | 4.8 | 8.0 | 0.00 | 0.36 | 0.00 | 95 | 1011.3 |
| 20260904104402 | 26 | 66 | 6.4 | 8.0 | 0.00 | 0.36 | 0.00 | 95 | 1011.2 |
| 20260904104304 | 26 | 65 | 4.8 | 8.0 | 0.00 | 0.36 | 0.00 | 95 | 1011.3 |
| 20260904104203 | 26 | 65 | 4.8 | 6.4 | 0.00 | 0.36 | 0.00 | 95 | 1011.2 |
| 20260904104102 | 26 | 65 | 4.8 | 6.4 | 0.00 | 0.36 | 0.00 | 95 | 1011.2 |
| 20260904104003 | 26 | 63 | 4.8 | 6.4 | 0.00 | 0.36 | 0.00 | 95 | 1011.3 |
| 20260904103903 | 26 | 63 | 4.8 | 6.4 | 0.00 | 0.36 | 0.00 | 95 | 1011.3 |
| 20260904103802 | 26 | 63 | 4.8 | 6.4 | 0.00 | 0.36 | 0.00 | 95 | 1011.2 |
| 20260904103702 | 26 | 54 | 3.2 | 6.4 | 0.00 | 0.36 | 0.00 | 95 | 1011.3 |
| 20260904103602 | 26 | 52 | 3.2 | 4.8 | 0.00 | 0.36 | 0.00 | 95 | 1011.3 |
| 20260904103502 | 26 | 52 | 3.2 | 4.8 | 0.00 | 0.36 | 0.00 | 95 | 1011.3 |
| 20260904103403 | 26 | 52 | 3.2 | 4.8 | 0.00 | 0.36 | 0.00 | 95 | 1011.3 |
| 20260904103303 | 26 | 52 | 3.2 | 4.8 | 0.00 | 0.36 | 0.00 | 95 | 1011.3 |
| 20260904103202 | 26 | 52 | 3.2 | 4.8 | 0.00 | 0.36 | 0.00 | 95 | 1011.3 |
| 20260904103102 | 26 | 52 | 3.2 | 4.8 | 0.00 | 0.36 | 0.00 | 95 | 1011.2 |
| 20260904103002 | 26 | 52 | 3.2 | 4.8 | 0.00 | 0.36 | 0.00 | 95 | 1011.2 |
| 20260904102903 | 26 | 52 | 3.2 | 4.8 | 0.00 | 0.36 | 0.00 | 95 | 1011.2 |
| 20260904102802 | 26 | 52 | 3.2 | 4.8 | 0.00 | 0.36 | 0.00 | 95 | 1011.2 |
| 20260904102704 | 26 | 52 | 3.2 | 6.4 | 0.00 | 0.36 | 0.00 | 95 | 1011.1 |
| 20260904102603 | 26 | 52 | 3.2 | 6.4 | 0.00 | 0.36 | 0.00 | 95 | 1011.1 |
| 20260904102503 | 26 | 52 | 3.2 | 6.4 | 0.00 | 0.36 | 0.00 | 95 | 1011.1 |
| 20260904102404 | 26 | 52 | 3.2 | 6.4 | 0.00 | 0.36 | 0.00 | 95 | 1011.1 |
| 20260904102301 | 26 | 52 | 3.2 | 6.4 | 0.00 | 0.36 | 0.00 | 95 | 1011.1 |
| 20260904102204 | 26 | 52 | 3.2 | 6.4 | 0.00 | 0.36 | 0.00 | 95 | 1011.0 |
| 20260904102103 | 26 | 52 | 3.2 | 6.4 | 0.00 | 0.36 | 0.00 | 95 | 1011.0 |
| 20260904102003 | 26 | 52 | 3.2 | 6.4 | 0.00 | 0.36 | 0.00 | 95 | 1011.0 |
| 20260904101903 | 26 | 54 | 3.2 | 6.4 | 0.00 | 0.36 | 0.00 | 95 | 1011.0 |
| 20260904101802 | 26 | 54 | 4.8 | 6.4 | 0.00 | 0.36 | 0.00 | 95 | 1011.0 |
| 20260904101702 | 26 | 75 | 3.2 | 6.4 | 0.00 | 0.36 | 0.00 | 95 | 1011.0 |
| 20260904101603 | 26 | 76 | 3.2 | 6.4 | 0.00 | 0.36 | 0.00 | 95 | 1010.9 |
| 20260904101503 | 26 | 76 | 3.2 | 6.4 | 0.00 | 0.36 | 0.00 | 95 | 1010.9 |
| 20260904101403 | 26 | 78 | 3.2 | 6.4 | 0.00 | 0.36 | 0.00 | 95 | 1011.0 |
| 20260904101303 | 26 | 78 | 3.2 | 6.4 | 0.00 | 0.36 | 0.00 | 95 | 1010.9 |
| 20260904101203 | 26 | 78 | 3.2 | 6.4 | 0.00 | 0.36 | 0.00 | 95 | 1011.0 |
| 20260904101103 | 26 | 78 | 3.2 | 4.8 | 0.00 | 0.36 | 0.00 | 95 | 1011.0 |
| 20260904101002 | 26 | 78 | 3.2 | 4.8 | 0.00 | 0.36 | 0.00 | 95 | 1011.0 |
| 20260904100903 | 26 | 79 | 0.0 | 4.8 | 0.00 | 0.36 | 0.00 | 95 | 1010.9 |
| 20260904100803 | 26 | 100 | 0.0 | 0.0 | 0.00 | 0.36 | 0.00 | 95 | 1010.9 |
| 20260904100703 | 26 | 102 | 0.0 | 0.0 | 0.00 | 0.36 | 0.00 | 95 | 1010.9 |
| 20260904100603 | 26 | 102 | 0.0 | 0.0 | 0.00 | 0.36 | 0.00 | 95 | 1010.9 |
| 20260904100504 | 26 | 102 | 0.0 | 0.0 | 0.00 | 0.36 | 0.00 | 95 | 1010.9 |
| 20260904100402 | 26 | 102 | 0.0 | 0.0 | 0.00 | 0.36 | 0.00 | 95 | 1010.8 |
| 20260904100302 | 26 | 102 | 0.0 | 0.0 | 0.00 | 0.36 | 0.00 | 95 | 1010.8 |
| 20260904100203 | 26 | 102 | 0.0 | 0.0 | 0.00 | 0.36 | 0.00 | 95 | 1010.9 |
| 20260904100004 | 26 | 102 | 0.0 | 0.0 | 0.00 | 0.36 | 0.00 | 95 | 1010.9 |
| 20260904095904 | 26 | 102 | 0.0 | 0.0 | 0.00 | 0.36 | 0.00 | 95 | 1010.8 |
| 20260904095804 | 26 | 102 | 0.0 | 0.0 | 0.00 | 0.36 | 0.00 | 95 | 1010.8 |
| 20260904095702 | 26 | 102 | 0.0 | 0.0 | 0.00 | 0.36 | 0.00 | 95 | 1010.9 |
| 20260904095602 | 26 | 102 | 0.0 | 0.0 | 0.00 | 0.36 | 0.00 | 95 | 1010.8 |
| 20260904095503 | 26 | 102 | 0.0 | 0.0 | 0.00 | 0.36 | 0.00 | 95 | 1010.8 |
| 20260904095402 | 26 | 102 | 0.0 | 0.0 | 0.00 | 0.36 | 0.00 | 95 | 1010.9 |
| 20260904095306 | 26 | 102 | 0.0 | 0.0 | 0.00 | 0.36 | 0.00 | 95 | 1010.7 |
| 20260904095205 | 26 | 102 | 0.0 | 0.0 | 0.00 | 0.36 | 0.00 | 95 | 1010.8 |
| 20260904095102 | 26 | 102 | 0.0 | 0.0 | 0.00 | 0.36 | 0.00 | 95 | 1010.8 |
| 20260904095002 | 26 | 102 | 0.0 | 0.0 | 0.00 | 0.36 | 0.00 | 95 | 1010.8 |
| 20260904094902 | 26 | 102 | 0.0 | 0.0 | 0.00 | 0.36 | 0.00 | 95 | 1010.8 |
| 20260904094802 | 26 | 102 | 0.0 | 0.0 | 0.00 | 0.36 | 0.00 | 95 | 1010.8 |
| 20260904094702 | 26 | 102 | 0.0 | 0.0 | 0.00 | 0.36 | 0.00 | 95 | 1010.8 |
| 20260904094604 | 26 | 102 | 0.0 | 0.0 | 0.00 | 0.36 | 0.00 | 95 | 1010.8 |
| 20260904094503 | 26 | 102 | 0.0 | 0.0 | 0.00 | 0.36 | 0.00 | 95 | 1010.7 |
| 20260904094402 | 26 | 102 | 0.0 | 0.0 | 0.00 | 0.36 | 0.00 | 95 | 1010.8 |
| 20260904094302 | 26 | 102 | 0.0 | 0.0 | 0.00 | 0.36 | 0.00 | 95 | 1010.8 |
| 20260904094203 | 26 | 102 | 0.0 | 0.0 | 0.00 | 0.36 | 0.00 | 95 | 1010.7 |
| 20260904094103 | 26 | 102 | 0.0 | 0.0 | 0.00 | 0.36 | 0.00 | 95 | 1010.7 |
| 20260904094003 | 26 | 102 | 0.0 | 0.0 | 0.00 | 0.36 | 0.00 | 95 | 1010.7 |
| 20260904093903 | 26 | 102 | 0.0 | 0.0 | 0.00 | 0.36 | 0.00 | 95 | 1010.7 |
| 20260904093803 | 26 | 102 | 0.0 | 0.0 | 0.00 | 0.36 | 0.00 | 95 | 1010.7 |
| 20260904093703 | 26 | 102 | 0.0 | 0.0 | 0.00 | 0.36 | 0.00 | 94 | 1010.7 |
| 20260904093602 | 26 | 102 | 0.0 | 0.0 | 0.00 | 0.36 | 0.00 | 95 | 1010.7 |
| 20260904093502 | 26 | 102 | 0.0 | 0.0 | 0.00 | 0.36 | 0.00 | 94 | 1010.8 |
| 20260904093402 | 26 | 102 | 0.0 | 0.0 | 0.00 | 0.36 | 0.00 | 94 | 1010.7 |
| 20260904093303 | 26 | 102 | 0.0 | 0.0 | 0.00 | 0.36 | 0.00 | 94 | 1010.7 |
| 20260904093202 | 26 | 102 | 0.0 | 0.0 | 0.00 | 0.36 | 0.00 | 95 | 1010.7 |
| 20260904093102 | 26 | 102 | 0.0 | 0.0 | 0.00 | 0.36 | 0.00 | 95 | 1010.7 |
| 20260904093002 | 26 | 102 | 0.0 | 0.0 | 0.00 | 0.36 | 0.00 | 95 | 1010.7 |
| 20260904092902 | 26 | 102 | 0.0 | 0.0 | 0.00 | 0.36 | 0.00 | 95 | 1010.7 |
| 20260904092803 | 26 | 102 | 0.0 | 0.0 | 0.00 | 0.36 | 0.00 | 94 | 1010.7 |
| 20260904092703 | 26 | 102 | 0.0 | 0.0 | 0.00 | 0.36 | 0.00 | 94 | 1010.7 |
| 20260904092602 | 26 | 102 | 0.0 | 0.0 | 0.00 | 0.36 | 0.00 | 94 | 1010.7 |
| 20260904092502 | 26 | 102 | 0.0 | 0.0 | 0.00 | 0.36 | 0.00 | 94 | 1010.7 |
| 20260904092402 | 26 | 102 | 0.0 | 0.0 | 0.00 | 0.36 | 0.00 | 94 | 1010.8 |
| 20260904092306 | 26 | 102 | 0.0 | 0.0 | 0.00 | 0.36 | 0.00 | 94 | 1010.7 |
| 20260904092202 | 26 | 102 | 0.0 | 0.0 | 0.00 | 0.36 | 0.00 | 94 | 1010.7 |
| 20260904092103 | 26 | 102 | 0.0 | 0.0 | 0.00 | 0.36 | 0.00 | 94 | 1010.7 |
| 20260904092003 | 26 | 102 | 0.0 | 0.0 | 0.00 | 0.36 | 0.00 | 94 | 1010.7 |
| 20260904091903 | 26 | 102 | 0.0 | 0.0 | 0.00 | 0.36 | 0.00 | 94 | 1010.6 |
| 20260904091748 | 26 | 102 | 0.0 | 0.0 | 0.00 | 0.36 | 0.00 | 94 | 1010.6 |
| 20260904091647 | 26 | 102 | 0.0 | 0.0 | 0.00 | 0.36 | 0.00 | 94 | 1010.6 |
| 20260904091546 | 26 | 102 | 0.0 | 0.0 | 0.00 | 0.36 | 0.00 | 94 | 1010.6 |
| 20260904091444 | 26 | 102 | 0.0 | 0.0 | 0.00 | 0.36 | 0.00 | 94 | 1010.7 |
| 20260904091344 | 26 | 102 | 0.0 | 0.0 | 0.00 | 0.36 | 0.00 | 94 | 1010.6 |
| 20260904091244 | 26 | 102 | 0.0 | 0.0 | 0.00 | 0.36 | 0.00 | 94 | 1010.6 |
| 20260904091146 | 26 | 102 | 0.0 | 0.0 | 0.00 | 0.36 | 0.00 | 94 | 1010.7 |
| 20260904091046 | 26 | 93 | 0.0 | 0.0 | 0.00 | 0.36 | 0.00 | 94 | 1010.6 |
| 20260904090946 | 26 | 96 | 0.0 | 0.0 | 0.00 | 0.36 | 0.00 | 94 | 1010.6 |
| 20260904090845 | 26 | 96 | 0.0 | 0.0 | 0.00 | 0.36 | 0.00 | 94 | 1010.6 |
| 20260904090744 | 26 | 96 | 0.0 | 0.0 | 0.00 | 0.36 | 0.00 | 94 | 1010.7 |
| 20260904090644 | 26 | 96 | 0.0 | 0.0 | 0.00 | 0.36 | 0.00 | 94 | 1010.7 |
| 20260904090545 | 26 | 96 | 0.0 | 0.0 | 0.00 | 0.36 | 0.00 | 94 | 1010.8 |
| 20260904090444 | 26 | 96 | 0.0 | 0.0 | 0.00 | 0.36 | 0.00 | 94 | 1010.8 |
| 20260904090344 | 26 | 96 | 0.0 | 0.0 | 0.00 | 0.36 | 0.00 | 94 | 1010.8 |
| 20260904090244 | 26 | 97 | 0.0 | 0.0 | 0.00 | 0.36 | 0.00 | 94 | 1010.8 |
| 20260904090147 | 26 | 97 | 0.0 | 0.0 | 0.00 | 0.36 | 0.00 | 94 | 1010.8 |
| 20260904090045 | 26 | 99 | 0.0 | 0.0 | 0.00 | 0.36 | 0.00 | 94 | 1010.8 |
| 20260904085946 | 26 | 99 | 0.0 | 0.0 | 0.00 | 0.36 | 0.00 | 94 | 1010.8 |
| 20260904085846 | 27 | 100 | 0.0 | 0.0 | 0.00 | 0.36 | 0.00 | 94 | 1010.9 |
| 20260904085745 | 26 | 100 | 0.0 | 0.0 | 0.00 | 0.36 | 0.00 | 94 | 1010.8 |
| 20260904085642 | 27 | 100 | 0.0 | 0.0 | 0.00 | 0.36 | 0.00 | 94 | 1010.9 |
| 20260904085542 | 27 | 100 | 0.0 | 0.0 | 0.00 | 0.36 | 0.00 | 94 | 1010.9 |
| 20260904085439 | 27 | 100 | 0.0 | 0.0 | 0.00 | 0.36 | 0.00 | 94 | 1010.8 |
| 20260904085338 | 27 | 100 | 0.0 | 0.0 | 0.00 | 0.36 | 0.00 | 94 | 1010.8 |
| 20260904085237 | 27 | 100 | 0.0 | 0.0 | 0.00 | 0.36 | 0.00 | 94 | 1010.9 |
| 20260904085135 | 27 | 100 | 0.0 | 0.0 | 0.00 | 0.36 | 0.00 | 94 | 1010.9 |
| 20260904085034 | 27 | 100 | 0.0 | 0.0 | 0.00 | 0.36 | 0.00 | 94 | 1010.8 |
| 20260904084931 | 27 | 100 | 0.0 | 0.0 | 0.00 | 0.36 | 0.00 | 93 | 1010.9 |
| 20260904084831 | 27 | 102 | 0.0 | 0.0 | 0.00 | 0.36 | 0.00 | 94 | 1010.8 |
| 20260904084731 | 27 | 102 | 0.0 | 0.0 | 0.00 | 0.36 | 0.00 | 93 | 1010.9 |
| 20260904084632 | 27 | 102 | 0.0 | 0.0 | 0.00 | 0.36 | 0.00 | 93 | 1010.8 |
| 20260904084531 | 27 | 102 | 0.0 | 0.0 | 0.00 | 0.36 | 0.00 | 93 | 1010.8 |
| 20260904084432 | 27 | 102 | 0.0 | 0.0 | 0.00 | 0.36 | 0.00 | 93 | 1010.8 |
| 20260904084331 | 27 | 102 | 0.0 | 0.0 | 0.00 | 0.36 | 0.00 | 93 | 1010.9 |
| 20260904084232 | 27 | 102 | 0.0 | 0.0 | 0.00 | 0.36 | 0.00 | 93 | 1010.8 |
| 20260904084131 | 27 | 102 | 0.0 | 0.0 | 0.00 | 0.36 | 0.00 | 93 | 1010.8 |
| 20260904084031 | 27 | 102 | 0.0 | 0.0 | 0.00 | 0.36 | 0.00 | 93 | 1010.8 |
| 20260904083932 | 27 | 102 | 0.0 | 0.0 | 0.00 | 0.36 | 0.00 | 93 | 1010.9 |
| 20260904083832 | 27 | 102 | 0.0 | 0.0 | 0.00 | 0.36 | 0.00 | 93 | 1010.9 |
| 20260904083731 | 27 | 102 | 0.0 | 0.0 | 0.00 | 0.36 | 0.00 | 93 | 1010.9 |
| 20260904083631 | 27 | 102 | 0.0 | 0.0 | 0.00 | 0.36 | 0.00 | 93 | 1010.9 |
| 20260904083532 | 27 | 102 | 0.0 | 0.0 | 0.00 | 0.36 | 0.00 | 93 | 1010.9 |
| 20260904083432 | 27 | 102 | 0.0 | 0.0 | 0.00 | 0.36 | 0.00 | 93 | 1010.9 |
| 20260904083331 | 27 | 102 | 0.0 | 0.0 | 0.00 | 0.36 | 0.00 | 93 | 1010.9 |
| 20260904083231 | 27 | 102 | 0.0 | 0.0 | 0.00 | 0.36 | 0.00 | 93 | 1010.9 |
| 20260904083132 | 27 | 102 | 0.0 | 0.0 | 0.00 | 0.36 | 0.00 | 93 | 1011.0 |
| 20260904083031 | 27 | 102 | 0.0 | 0.0 | 0.00 | 0.36 | 0.00 | 93 | 1010.8 |
| 20260904082932 | 27 | 102 | 0.0 | 0.0 | 0.00 | 0.36 | 0.00 | 93 | 1010.9 |
| 20260904082832 | 27 | 102 | 0.0 | 0.0 | 0.00 | 0.36 | 0.00 | 93 | 1010.9 |
| 20260904082731 | 27 | 102 | 0.0 | 0.0 | 0.00 | 0.36 | 0.00 | 93 | 1011.0 |
| 20260904082630 | 27 | 102 | 0.0 | 0.0 | 0.00 | 0.36 | 0.00 | 93 | 1010.9 |
| 20260904082533 | 27 | 102 | 0.0 | 0.0 | 0.00 | 0.36 | 0.00 | 93 | 1011.0 |
| 20260904082431 | 27 | 102 | 0.0 | 0.0 | 0.00 | 0.36 | 0.00 | 93 | 1011.0 |
| 20260904082332 | 27 | 102 | 0.0 | 0.0 | 0.00 | 0.36 | 0.00 | 93 | 1011.0 |
| 20260904082233 | 27 | 102 | 0.0 | 0.0 | 0.00 | 0.36 | 0.00 | 93 | 1011.1 |
| 20260904082111 | 27 | 102 | 0.0 | 0.0 | 0.00 | 0.36 | 0.00 | 93 | 1011.0 |
| 20260904082012 | 27 | 102 | 0.0 | 0.0 | 0.00 | 0.36 | 0.00 | 93 | 1011.0 |
| 20260904081910 | 27 | 102 | 0.0 | 0.0 | 0.00 | 0.36 | 0.00 | 93 | 1011.0 |
| 20260904081807 | 27 | 102 | 0.0 | 0.0 | 0.00 | 0.36 | 0.00 | 93 | 1011.0 |
| 20260904081706 | 27 | 102 | 0.0 | 0.0 | 0.00 | 0.36 | 0.00 | 93 | 1011.0 |
| 20260904081605 | 27 | 102 | 0.0 | 0.0 | 0.00 | 0.36 | 0.00 | 93 | 1011.0 |
| 20260904081503 | 27 | 102 | 0.0 | 0.0 | 0.00 | 0.36 | 0.00 | 93 | 1011.0 |
| 20260904081403 | 27 | 102 | 0.0 | 0.0 | 0.00 | 0.36 | 0.00 | 93 | 1011.0 |
| 20260904081304 | 27 | 102 | 0.0 | 0.0 | 0.00 | 0.36 | 0.00 | 93 | 1011.0 |
| 20260904081202 | 27 | 102 | 0.0 | 0.0 | 0.00 | 0.36 | 0.00 | 93 | 1011.0 |
| 20260904081102 | 27 | 102 | 0.0 | 0.0 | 0.00 | 0.36 | 0.00 | 93 | 1011.0 |
| 20260904081002 | 27 | 102 | 0.0 | 0.0 | 0.00 | 0.36 | 0.00 | 92 | 1011.0 |
| 20260904080904 | 27 | 102 | 0.0 | 0.0 | 0.00 | 0.36 | 0.00 | 92 | 1011.0 |
| 20260904080802 | 27 | 102 | 0.0 | 0.0 | 0.00 | 0.36 | 0.00 | 92 | 1010.9 |
| 20260904080702 | 27 | 102 | 0.0 | 0.0 | 0.00 | 0.36 | 0.00 | 92 | 1011.0 |
| 20260904080603 | 27 | 102 | 0.0 | 0.0 | 0.00 | 0.36 | 0.00 | 92 | 1011.0 |
| 20260904080503 | 27 | 102 | 0.0 | 0.0 | 0.00 | 0.36 | 0.00 | 92 | 1011.0 |
| 20260904080403 | 27 | 102 | 0.0 | 0.0 | 0.00 | 0.36 | 0.00 | 92 | 1011.0 |
| 20260904080302 | 27 | 102 | 0.0 | 0.0 | 0.00 | 0.36 | 0.00 | 92 | 1011.0 |
| 20260904080204 | 27 | 102 | 0.0 | 0.0 | 0.00 | 0.36 | 0.00 | 92 | 1011.0 |
| 20260904080002 | 27 | 102 | 0.0 | 0.0 | 0.00 | 0.36 | 0.00 | 92 | 1011.0 |
| 20260904075904 | 27 | 102 | 0.0 | 0.0 | 0.00 | 0.36 | 0.00 | 92 | 1011.0 |
| 20260904075802 | 27 | 102 | 0.0 | 0.0 | 0.00 | 0.36 | 0.00 | 91 | 1010.9 |
| 20260904075703 | 27 | 102 | 0.0 | 0.0 | 0.00 | 0.36 | 0.00 | 91 | 1010.9 |
| 20260904075603 | 27 | 102 | 0.0 | 0.0 | 0.00 | 0.36 | 0.00 | 91 | 1011.0 |
| 20260904075503 | 27 | 102 | 0.0 | 0.0 | 0.00 | 0.36 | 0.00 | 91 | 1010.9 |
| 20260904075403 | 27 | 102 | 0.0 | 0.0 | 0.00 | 0.36 | 0.00 | 91 | 1010.9 |
| 20260904075306 | 27 | 102 | 0.0 | 0.0 | 0.00 | 0.36 | 0.00 | 91 | 1010.9 |
| 20260904075204 | 27 | 123 | 0.0 | 0.0 | 0.00 | 0.36 | 0.00 | 91 | 1010.9 |
| 20260904075102 | 27 | 123 | 0.0 | 0.0 | 0.00 | 0.36 | 0.00 | 91 | 1010.9 |
| 20260904075003 | 27 | 188 | 0.0 | 0.0 | 0.00 | 0.36 | 0.00 | 91 | 1010.9 |
| 20260904074904 | 27 | 197 | 0.0 | 0.0 | 0.00 | 0.36 | 0.00 | 91 | 1010.9 |
| 20260904074802 | 27 | 199 | 0.0 | 3.2 | 0.00 | 0.36 | 0.00 | 91 | 1010.9 |
| 20260904074702 | 27 | 199 | 0.0 | 4.8 | 0.00 | 0.36 | 0.00 | 91 | 1010.9 |
| 20260904074602 | 27 | 199 | 0.0 | 4.8 | 0.00 | 0.36 | 0.00 | 91 | 1011.0 |
| 20260904074503 | 27 | 199 | 0.0 | 4.8 | 0.00 | 0.36 | 0.00 | 91 | 1010.9 |
| 20260904074402 | 27 | 199 | 0.0 | 4.8 | 0.00 | 0.36 | 0.00 | 91 | 1010.9 |
| 20260904074304 | 27 | 199 | 0.0 | 4.8 | 0.00 | 0.36 | 0.00 | 91 | 1010.9 |
| 20260904074203 | 27 | 199 | 0.0 | 4.8 | 0.00 | 0.36 | 0.00 | 91 | 1010.9 |
| 20260904074102 | 27 | 199 | 0.0 | 4.8 | 0.00 | 0.36 | 0.00 | 91 | 1010.9 |
| 20260904074004 | 27 | 199 | 1.6 | 4.8 | 0.00 | 0.36 | 0.00 | 91 | 1010.9 |
| 20260904073904 | 27 | 199 | 1.6 | 4.8 | 0.00 | 0.36 | 0.00 | 91 | 1010.9 |
| 20260904073804 | 27 | 199 | 1.6 | 4.8 | 0.00 | 0.36 | 0.00 | 91 | 1010.9 |
| 20260904073702 | 27 | 199 | 0.0 | 4.8 | 0.00 | 0.36 | 0.00 | 91 | 1010.9 |
| 20260904073603 | 27 | 199 | 0.0 | 4.8 | 0.00 | 0.36 | 0.00 | 91 | 1010.9 |
| 20260904073503 | 27 | 199 | 0.0 | 4.8 | 0.00 | 0.36 | 0.00 | 91 | 1010.9 |
| 20260904073402 | 27 | 199 | 0.0 | 4.8 | 0.00 | 0.36 | 0.00 | 91 | 1010.9 |
| 20260904073302 | 27 | 199 | 0.0 | 4.8 | 0.00 | 0.36 | 0.00 | 91 | 1010.9 |
| 20260904073203 | 27 | 199 | 1.6 | 4.8 | 0.00 | 0.36 | 0.00 | 91 | 1011.0 |
| 20260904073103 | 27 | 199 | 1.6 | 4.8 | 0.00 | 0.36 | 0.00 | 91 | 1010.9 |
| 20260904073003 | 27 | 199 | 1.6 | 4.8 | 0.00 | 0.36 | 0.00 | 91 | 1010.9 |
| 20260904072902 | 27 | 171 | 0.0 | 4.8 | 0.00 | 0.36 | 0.00 | 91 | 1011.0 |
| 20260904072804 | 27 | 171 | 0.0 | 4.8 | 0.00 | 0.36 | 0.00 | 91 | 1011.0 |
| 20260904072702 | 27 | 171 | 0.0 | 4.8 | 0.00 | 0.36 | 0.00 | 91 | 1010.9 |
| 20260904072603 | 27 | 171 | 0.0 | 4.8 | 0.00 | 0.36 | 0.00 | 91 | 1010.9 |
| 20260904072506 | 27 | 171 | 1.6 | 4.8 | 0.00 | 0.36 | 0.00 | 91 | 1011.0 |
| 20260904072403 | 27 | 171 | 1.6 | 4.8 | 0.00 | 0.36 | 0.00 | 91 | 1010.9 |
| 20260904072306 | 27 | 171 | 1.6 | 4.8 | 0.00 | 0.36 | 0.00 | 91 | 1011.0 |
| 20260904072202 | 27 | 168 | 0.0 | 4.8 | 0.00 | 0.36 | 0.00 | 91 | 1010.9 |
| 20260904072103 | 27 | 168 | 1.6 | 4.8 | 0.00 | 0.36 | 0.00 | 91 | 1010.9 |
| 20260904072002 | 27 | 168 | 1.6 | 4.8 | 0.00 | 0.36 | 0.00 | 91 | 1011.0 |
| 20260904071902 | 27 | 168 | 1.6 | 4.8 | 0.00 | 0.36 | 0.00 | 91 | 1011.0 |
| 20260904071801 | 27 | 168 | 1.6 | 3.2 | 0.00 | 0.36 | 0.00 | 91 | 1011.0 |
| 20260904071703 | 27 | 175 | 0.0 | 4.8 | 0.00 | 0.36 | 0.00 | 91 | 1011.0 |
| 20260904071601 | 27 | 175 | 0.0 | 4.8 | 0.00 | 0.36 | 0.00 | 91 | 1011.1 |
| 20260904071503 | 27 | 175 | 1.6 | 6.4 | 0.00 | 0.36 | 0.00 | 91 | 1011.0 |
| 20260904071402 | 27 | 176 | 1.6 | 6.4 | 0.00 | 0.36 | 0.00 | 91 | 1011.0 |
| 20260904071303 | 27 | 176 | 1.6 | 6.4 | 0.00 | 0.36 | 0.00 | 91 | 1011.1 |
| 20260904071202 | 27 | 176 | 1.6 | 6.4 | 0.00 | 0.36 | 0.00 | 91 | 1011.1 |
| 20260904071102 | 27 | 176 | 0.0 | 6.4 | 0.00 | 0.36 | 0.00 | 91 | 1011.0 |
| 20260904071003 | 27 | 176 | 0.0 | 6.4 | 0.00 | 0.36 | 0.00 | 91 | 1011.1 |
| 20260904070902 | 27 | 176 | 1.6 | 6.4 | 0.00 | 0.36 | 0.00 | 91 | 1011.1 |
| 20260904070803 | 27 | 176 | 3.2 | 6.4 | 0.00 | 0.36 | 0.00 | 90 | 1011.1 |
| 20260904070702 | 27 | 180 | 3.2 | 6.4 | 0.00 | 0.36 | 0.00 | 91 | 1011.0 |
| 20260904070603 | 27 | 183 | 3.2 | 6.4 | 0.00 | 0.36 | 0.00 | 91 | 1011.1 |
| 20260904070502 | 27 | 172 | 3.2 | 4.8 | 0.00 | 0.36 | 0.00 | 91 | 1011.0 |
| 20260904070403 | 27 | 168 | 1.6 | 4.8 | 0.00 | 0.36 | 0.00 | 91 | 1011.1 |
| 20260904070303 | 27 | 171 | 1.6 | 4.8 | 0.00 | 0.36 | 0.00 | 90 | 1011.1 |
| 20260904070204 | 27 | 172 | 3.2 | 4.8 | 0.00 | 0.36 | 0.00 | 90 | 1011.0 |
| 20260904070103 | 27 | 178 | 1.6 | 4.8 | 0.00 | 0.36 | 0.00 | 90 | 1011.1 |
| 20260904070003 | 27 | 175 | 1.6 | 4.8 | 0.00 | 0.36 | 0.00 | 90 | 1011.1 |
| 20260904065902 | 27 | 210 | 1.6 | 4.8 | 0.00 | 0.36 | 0.00 | 90 | 1011.0 |
| 20260904065804 | 27 | 212 | 1.6 | 6.4 | 0.00 | 0.36 | 0.00 | 90 | 1011.0 |
| 20260904065703 | 27 | 213 | 1.6 | 8.0 | 0.00 | 0.36 | 0.00 | 90 | 1011.1 |
| 20260904065602 | 27 | 214 | 1.6 | 8.0 | 0.00 | 0.36 | 0.00 | 90 | 1011.1 |
| 20260904065502 | 27 | 214 | 1.6 | 8.0 | 0.00 | 0.36 | 0.00 | 90 | 1011.1 |
| 20260904065403 | 27 | 214 | 1.6 | 8.0 | 0.00 | 0.36 | 0.00 | 90 | 1011.0 |
| 20260904065306 | 27 | 193 | 1.6 | 8.0 | 0.00 | 0.36 | 0.00 | 90 | 1011.0 |
| 20260904065202 | 27 | 193 | 0.0 | 8.0 | 0.00 | 0.36 | 0.00 | 90 | 1011.0 |
| 20260904065103 | 27 | 193 | 1.6 | 8.0 | 0.00 | 0.36 | 0.00 | 90 | 1011.0 |
| 20260904065004 | 27 | 193 | 3.2 | 8.0 | 0.00 | 0.36 | 0.00 | 90 | 1011.0 |
| 20260904064901 | 27 | 190 | 4.8 | 8.0 | 0.00 | 0.36 | 0.00 | 90 | 1011.0 |
| 20260904064802 | 27 | 210 | 3.2 | 8.0 | 0.00 | 0.36 | 0.00 | 90 | 1011.0 |
| 20260904064704 | 27 | 196 | 1.6 | 6.4 | 0.00 | 0.36 | 0.00 | 90 | 1011.0 |
| 20260904064602 | 27 | 197 | 1.6 | 6.4 | 0.00 | 0.36 | 0.00 | 90 | 1010.9 |
| 20260904064503 | 27 | 197 | 3.2 | 6.4 | 0.00 | 0.36 | 0.00 | 90 | 1011.0 |
| 20260904064403 | 27 | 216 | 3.2 | 6.4 | 0.00 | 0.36 | 0.00 | 90 | 1011.0 |
| 20260904064303 | 27 | 217 | 4.8 | 6.4 | 0.00 | 0.36 | 0.00 | 90 | 1011.0 |
| 20260904064202 | 27 | 189 | 4.8 | 9.7 | 0.00 | 0.36 | 0.00 | 90 | 1011.0 |
| 20260904064102 | 27 | 196 | 4.8 | 9.7 | 0.00 | 0.36 | 0.00 | 90 | 1011.0 |
| 20260904064004 | 27 | 217 | 3.2 | 9.7 | 0.00 | 0.36 | 0.00 | 90 | 1011.0 |
| 20260904063901 | 27 | 193 | 1.6 | 9.7 | 0.00 | 0.36 | 0.00 | 90 | 1011.0 |
| 20260904063803 | 27 | 189 | 3.2 | 9.7 | 0.00 | 0.36 | 0.00 | 90 | 1011.0 |
| 20260904063704 | 27 | 189 | 3.2 | 9.7 | 0.00 | 0.36 | 0.00 | 90 | 1011.1 |
| 20260904063602 | 27 | 189 | 3.2 | 9.7 | 0.00 | 0.36 | 0.00 | 90 | 1011.1 |
| 20260904063504 | 27 | 189 | 3.2 | 9.7 | 0.00 | 0.36 | 0.00 | 90 | 1011.0 |
| 20260904063404 | 27 | 199 | 4.8 | 9.7 | 0.00 | 0.36 | 0.00 | 90 | 1011.0 |